GFSSW_sfc_thetae_003.txt.gz
Theta_e
325 323 323 323 323 323 323 324 324 326 327 327 328 327 327 325 323 318 309 314 319 330 326 313 312 312 312 312 312 311 304 300 299 300 302 305 303 307 307 304 306 306 306 308 310
322 322 322 321 322 322 322 323 324 325 326 327 327 327 325 324 315 311 319 328 329 328 311 310 309 310 310 308 310 307 303 301 304 304 303 305 303 303 303 304 303 304 308 308 305
322 321 321 320 321 321 322 323 323 325 326 326 327 327 324 322 311 309 323 325 326 319 311 310 310 310 307 308 306 306 301 303 303 304 305 303 303 303 302 300 301 301 304 302 301
321 320 319 319 320 320 321 322 324 325 325 326 327 327 322 317 302 311 321 323 321 312 310 310 310 306 305 303 305 301 303 303 303 304 302 301 303 301 302 301 303 304 302 300 299
320 319 318 318 318 319 320 322 323 324 324 326 327 325 319 310 308 312 321 317 312 310 308 308 306 305 302 303 304 302 302 302 302 302 302 302 301 300 301 303 304 302 299 298 298
319 317 317 317 317 318 320 322 323 324 324 326 327 321 314 306 312 312 311 310 309 309 309 309 306 306 304 303 301 303 302 302 301 301 301 300 300 300 302 301 300 297 297 297 297
318 316 316 316 316 317 320 321 323 323 324 325 322 316 313 308 311 317 310 307 307 307 307 306 306 305 305 303 303 301 298 301 300 300 299 301 298 298 302 299 298 296 296 296 296
317 316 315 315 315 317 320 321 322 323 323 322 321 317 308 314 315 314 312 309 308 307 306 305 306 305 303 304 301 299 299 296 299 299 299 299 293 300 300 298 296 294 294 294 295
317 315 315 315 315 317 319 320 321 322 321 320 317 314 306 312 312 313 311 305 306 307 306 303 305 303 303 300 299 299 294 295 295 299 297 297 294 300 297 296 292 292 292 292 293
316 315 315 314 314 317 319 321 322 318 314 312 312 309 308 307 311 310 309 306 306 306 306 305 304 300 302 297 290 291 291 294 293 296 297 296 295 297 294 292 290 290 290 291 291
315 315 314 313 315 318 319 315 313 312 310 305 305 305 306 311 310 307 306 306 306 304 302 303 297 296 298 296 295 294 293 292 295 297 294 292 292 293 290 290 289 288 289 289 289
315 314 312 311 315 318 316 308 306 307 301 306 307 308 310 308 302 305 307 302 302 300 303 300 297 297 296 296 295 294 292 291 294 296 293 291 290 291 288 287 288 287 288 288 289
314 313 311 312 315 316 310 307 311 312 302 304 306 307 307 304 301 301 303 301 299 299 299 295 298 295 295 295 293 293 290 290 289 292 293 291 288 288 287 287 288 288 289 289 288
313 312 309 312 310 313 310 310 312 312 299 301 302 305 302 302 298 303 301 299 300 296 295 293 295 294 294 293 292 288 291 289 289 287 283 290 280 288 286 286 286 287 287 287 287
313 310 309 311 308 308 309 311 310 307 292 299 302 305 302 299 299 300 301 299 295 296 292 293 291 291 290 291 292 290 289 288 289 287 286 286 283 288 289 287 284 285 286 286 287
312 309 309 309 312 309 308 308 306 297 291 298 302 300 299 298 298 300 299 300 298 293 293 292 295 294 294 293 291 289 289 289 289 287 280 285 282 284 286 284 283 285 285 285 286
311 308 309 310 305 308 310 306 298 292 300 297 297 298 296 298 297 296 295 294 292 290 291 292 292 293 291 289 292 289 286 280 281 282 281 283 279 283 283 283 283 283 284 285 286
309 308 309 310 312 310 311 301 291 298 300 297 297 295 295 296 296 293 292 292 293 291 288 286 285 290 291 289 286 285 284 279 273 276 279 281 276 282 285 285 285 285 284 285 285
308 313 310 311 312 312 300 294 294 298 301 296 296 295 296 293 291 291 292 293 293 293 287 286 284 288 285 287 287 286 282 285 279 279 274 279 282 284 285 284 284 283 283 283 284
311 307 309 312 312 308 295 294 298 301 298 297 294 297 293 296 291 292 292 293 289 291 291 288 282 287 284 285 284 283 286 277 278 270 271 278 278 279 280 280 282 281 282 282 284
305 301 308 312 313 300 292 295 298 302 300 297 296 295 296 293 294 293 293 293 292 287 288 287 284 282 283 281 282 280 278 278 278 277 271 271 276 282 280 281 280 281 282 282 284
303 298 308 312 297 298 294 298 299 297 298 298 296 296 295 295 294 292 292 294 292 288 283 285 283 279 281 282 282 280 280 280 274 274 274 273 272 284 283 283 282 281 281 283 284
297 299 308 307 293 295 297 295 296 296 296 295 294 295 297 293 289 292 293 286 290 286 284 283 280 276 277 278 279 277 279 280 279 276 273 270 273 283 283 284 282 280 281 283 282
299 296 299 300 300 298 297 296 294 298 296 297 296 298 294 289 293 291 288 283 286 286 284 286 281 279 278 281 278 275 277 278 277 273 273 273 275 279 281 280 280 280 281 282 281
299 295 300 293 293 296 299 297 296 296 298 297 294 294 292 288 290 287 288 281 282 283 283 282 277 279 280 281 279 277 276 276 274 276 273 275 275 278 280 280 279 281 281 280 280
302 298 295 296 301 295 296 295 295 296 298 294 292 295 291 289 290 291 286 285 281 282 281 282 276 277 273 277 277 274 276 277 276 276 276 276 274 281 282 280 280 280 280 279 280
309 299 299 300 297 296 295 295 297 299 299 300 298 294 291 290 290 288 289 287 287 282 280 279 277 274 272 275 273 271 275 276 277 278 276 272 277 281 278 278 279 279 279 279 278

GFSSW_sfc_thetae_006.txt.gz
Theta_e
324 324 323 322 323 322 323 324 324 325 326 327 328 328 327 326 324 318 309 314 318 330 326 315 311 312 311 312 312 309 299 295 295 296 297 301 299 302 302 300 301 303 298 298 301
323 323 322 321 321 322 322 323 324 325 326 326 327 328 327 325 319 310 318 326 328 328 311 308 307 309 307 307 308 302 298 297 299 299 298 300 299 297 298 298 297 299 298 300 298
323 322 321 320 320 321 322 323 324 325 325 326 327 327 325 322 314 310 324 327 326 321 311 309 309 310 305 306 303 302 297 300 301 302 301 299 297 298 297 294 296 294 294 296 295
322 320 320 320 320 320 321 323 324 325 325 325 326 327 323 320 303 311 324 326 325 316 310 309 308 304 302 300 303 297 301 301 303 301 299 297 298 297 297 296 297 295 296 295 294
321 319 319 319 319 319 320 323 324 324 324 325 327 326 319 311 307 312 322 318 312 311 308 307 304 303 299 300 301 299 299 301 301 299 298 299 296 297 295 297 296 296 296 293 293
320 318 318 318 318 318 319 322 323 324 324 325 327 321 317 306 313 317 310 310 308 308 307 306 304 304 301 301 298 299 299 299 299 299 299 296 295 297 296 296 294 295 293 292 292
319 318 317 317 317 317 318 321 323 322 324 325 324 318 314 308 311 315 310 308 307 307 307 305 305 303 303 300 301 298 295 296 297 297 296 296 293 294 296 296 293 292 291 292 292
319 317 316 317 316 316 318 321 321 322 323 325 323 317 309 314 313 313 312 310 308 308 307 306 306 304 301 301 298 294 294 291 296 297 296 294 288 293 295 295 290 289 288 289 291
318 316 316 316 314 315 318 320 320 322 323 323 318 314 306 314 312 312 310 305 306 307 306 304 305 301 300 296 293 294 288 289 293 297 295 293 289 293 295 292 288 287 287 288 289
317 316 316 315 314 316 318 321 323 320 318 313 311 309 308 308 312 310 308 306 305 305 305 303 301 296 296 292 285 285 286 288 288 293 293 291 291 291 292 289 286 285 285 285 286
317 316 316 314 314 317 318 315 309 312 308 305 305 304 307 312 310 307 306 305 306 302 299 301 293 292 293 292 291 290 289 288 292 294 289 290 289 290 290 287 285 284 284 284 284
316 315 314 312 313 317 316 307 306 308 298 306 307 307 311 309 302 304 305 300 300 296 301 297 293 294 294 293 293 291 288 288 290 294 290 289 288 287 287 287 286 284 283 283 284
316 314 313 312 314 315 308 307 312 313 301 304 307 308 307 306 301 301 302 300 297 296 295 291 296 295 293 292 291 289 287 286 286 289 290 288 285 283 285 285 286 286 285 284 283
315 314 312 311 311 310 309 310 313 312 296 299 301 305 303 303 298 303 301 299 298 295 292 291 293 293 291 291 290 285 288 287 287 283 279 285 276 282 282 282 284 284 282 281 282
314 312 310 310 309 307 309 312 310 306 285 300 301 305 303 299 299 300 301 298 294 295 291 291 289 288 288 289 290 288 288 286 285 283 282 282 278 281 283 280 282 282 282 281 281
313 310 309 311 310 308 309 309 305 295 285 297 302 300 298 297 298 300 299 298 296 291 291 291 293 290 289 292 290 290 287 286 285 282 275 280 279 280 280 283 281 282 280 282 281
312 308 308 308 306 308 310 307 294 288 299 295 296 298 296 296 297 296 295 292 289 287 287 290 289 290 290 287 289 287 282 275 275 274 274 280 276 279 280 281 281 280 280 280 280
311 308 310 309 311 309 310 297 286 295 296 297 296 295 293 296 295 293 290 288 293 289 285 284 282 288 289 286 282 283 281 275 269 271 273 278 273 279 282 283 283 282 281 281 281
309 310 310 310 311 310 300 290 289 294 299 296 295 292 293 292 291 289 288 289 291 291 284 285 284 286 285 286 285 283 278 282 276 268 267 273 279 281 282 281 281 280 281 279 280
310 309 310 310 310 308 293 292 295 299 297 296 291 294 289 291 288 289 290 292 290 290 289 285 280 285 282 283 282 280 283 275 275 264 264 273 275 276 277 278 279 278 278 278 280
306 302 307 311 310 300 287 291 296 301 299 295 293 292 293 291 292 290 290 291 291 287 286 284 283 280 281 279 279 277 275 277 277 276 268 266 272 279 278 280 277 278 279 279 280
304 297 307 310 296 297 293 296 298 298 297 296 294 294 292 293 291 290 290 293 290 287 282 284 283 277 280 280 280 278 278 278 270 271 272 271 272 283 281 280 279 279 279 279 281
299 301 306 307 291 293 297 296 298 297 295 294 293 295 295 291 287 290 292 287 289 286 283 282 279 276 277 276 278 275 276 277 277 276 271 270 271 281 281 280 280 278 277 279 280
304 293 298 299 299 295 294 294 293 296 295 295 294 295 292 290 291 288 289 285 286 286 286 287 281 279 281 282 278 274 275 276 275 272 273 273 274 279 281 281 279 277 278 278 279
302 296 297 289 291 294 295 294 293 293 295 295 292 292 291 287 288 288 290 282 283 285 283 283 277 279 280 279 278 277 276 275 274 275 272 275 275 279 280 277 277 276 279 279 279
298 296 296 297 296 293 293 292 293 294 296 292 292 294 292 289 290 287 289 287 282 281 281 282 276 279 275 276 276 274 276 276 276 276 275 276 275 281 282 280 275 278 278 277 277
305 306 300 296 295 294 293 293 294 296 297 299 297 294 291 292 293 290 290 291 288 282 279 279 276 274 273 275 274 270 274 275 276 277 276 272 277 280 278 277 276 277 277 277 276

GFSSW_sfc_thetae_009.txt.gz
Theta_e
325 324 324 323 323 322 323 324 325 326 326 326 327 328 327 326 324 313 305 311 317 330 327 313 309 306 306 306 306 302 295 291 290 292 293 296 295 298 298 295 294 296 293 294 295
324 323 323 322 322 322 322 323 324 325 326 326 326 328 326 324 315 306 317 327 329 328 308 304 303 305 301 302 302 297 293 292 294 294 293 295 295 295 295 293 292 292 294 295 294
323 322 322 321 321 321 322 323 324 324 325 325 326 327 324 320 308 306 323 329 327 323 310 305 305 304 300 300 297 296 293 296 297 298 297 295 295 296 293 290 290 290 291 292 291
322 321 321 320 320 320 321 322 324 324 325 325 326 326 322 314 297 307 326 327 328 317 307 306 303 299 297 296 299 292 298 298 300 298 297 294 295 293 293 291 293 292 292 291 289
321 320 320 319 320 319 320 322 323 324 324 325 326 325 314 305 303 310 320 317 308 307 305 303 300 298 295 296 297 294 296 298 298 297 295 297 294 292 290 292 293 293 292 289 289
321 319 319 319 319 318 319 321 322 323 323 325 326 321 309 300 309 313 307 308 305 304 303 302 299 300 297 297 294 296 296 297 297 297 296 294 293 294 291 291 291 291 289 289 289
320 319 318 318 318 317 318 320 322 322 323 324 325 317 307 304 308 310 307 304 304 303 303 301 301 299 299 296 298 295 292 294 295 295 294 294 290 291 292 291 290 290 288 289 290
320 318 317 318 317 316 318 320 321 322 323 324 324 311 303 311 307 310 308 305 304 303 304 302 302 300 297 298 296 291 290 287 294 295 295 291 285 290 291 289 287 286 285 287 288
319 317 317 317 316 315 318 319 320 323 323 322 311 305 300 313 308 309 305 302 302 303 302 303 301 298 296 291 288 289 285 285 289 295 293 290 287 290 292 288 285 283 284 285 284
319 317 317 317 315 315 318 320 321 320 316 312 309 302 303 304 308 307 304 303 301 301 301 300 296 292 291 288 283 283 283 285 285 291 291 289 289 289 289 287 283 283 282 283 283
319 317 317 316 315 316 314 306 302 303 302 300 300 301 305 309 307 305 303 301 301 298 294 297 291 289 289 288 288 287 286 284 288 292 289 288 288 287 288 284 281 281 281 281 282
319 316 316 315 314 316 308 302 300 303 294 302 303 304 307 305 299 301 302 296 297 292 294 291 289 293 293 291 290 289 286 285 288 290 288 287 286 289 286 284 283 282 281 281 281
318 315 315 314 313 309 302 303 308 306 295 299 304 304 304 303 298 298 298 296 294 292 290 288 292 293 291 288 288 287 285 284 285 287 287 285 282 283 284 284 284 284 283 281 281
318 315 313 312 308 303 303 307 309 305 289 294 297 302 301 299 295 300 298 296 294 292 289 288 291 290 288 289 289 283 286 286 285 281 277 282 276 279 280 282 283 282 279 280 281
316 313 312 311 301 302 305 308 305 301 278 294 299 302 300 296 296 297 298 295 291 293 291 291 287 287 286 287 289 286 286 284 283 281 278 280 276 279 281 279 281 279 279 279 281
315 312 309 307 302 304 305 304 300 289 280 293 298 296 294 294 295 297 296 295 294 288 288 290 290 288 287 290 288 288 285 284 282 279 273 279 278 276 276 280 280 279 279 280 280
315 310 307 306 299 304 305 300 286 282 293 292 293 295 293 292 292 293 292 289 289 285 284 288 286 287 289 285 287 285 280 275 273 272 274 277 275 280 281 282 282 278 278 279 280
313 308 307 306 306 304 303 292 281 289 292 294 293 292 290 293 292 290 287 286 289 287 283 281 281 286 287 285 284 283 280 276 270 270 274 277 274 278 280 281 280 280 279 279 279
311 304 304 306 307 304 292 283 286 289 294 294 291 288 289 291 289 286 285 285 289 289 285 282 282 283 283 284 284 281 278 281 276 263 266 273 276 279 279 279 279 278 279 278 279
309 306 305 306 307 301 287 290 291 295 295 293 289 291 286 288 286 285 286 289 288 289 288 284 280 282 280 282 281 280 283 276 277 270 264 271 274 277 276 277 277 277 277 278 278
306 300 303 307 305 294 286 287 292 297 297 293 290 290 289 288 287 285 287 290 289 284 286 284 282 279 280 278 278 276 276 277 277 276 271 267 274 278 278 279 276 277 278 278 278
305 294 303 306 292 289 290 291 296 295 298 296 293 292 290 290 288 288 288 291 288 286 283 284 280 275 278 280 280 278 278 279 276 274 273 273 274 281 281 280 278 277 278 279 280
300 297 304 304 290 290 292 293 295 293 294 292 291 293 293 290 287 290 290 287 287 286 282 282 278 272 279 275 277 276 276 278 278 277 273 271 273 280 280 278 278 276 277 279 279
297 291 296 298 296 291 291 292 292 295 295 294 292 293 290 288 291 287 287 285 286 284 289 287 280 282 281 284 279 276 274 277 277 275 275 275 277 278 278 278 277 276 278 277 277
297 292 294 288 291 292 292 291 290 290 293 295 292 292 290 286 286 287 288 280 282 286 283 282 276 278 281 281 280 280 280 277 275 277 275 277 278 281 283 282 280 277 278 277 276
296 291 291 289 292 291 292 290 289 290 292 290 290 290 291 289 289 285 289 286 284 280 279 281 277 279 278 279 279 277 278 278 278 278 277 277 277 284 284 279 276 277 277 277 276
306 301 297 293 290 289 289 290 291 293 294 295 293 292 290 291 294 293 291 290 290 281 279 279 278 276 276 278 275 272 276 277 278 279 279 274 279 283 281 278 276 276 277 276 275

GFSSW_sfc_thetae_012.txt.gz
Theta_e
325 325 324 324 324 323 323 324 325 326 326 326 327 328 327 325 322 308 303 309 316 330 326 311 305 304 304 304 304 301 293 290 289 291 291 294 293 295 294 291 292 292 291 293 293
324 324 324 323 323 323 322 323 324 325 325 326 326 327 326 324 311 305 317 325 331 328 306 302 301 303 300 300 300 296 291 291 293 292 292 294 293 294 291 289 289 290 291 292 291
323 323 323 322 322 323 322 323 324 324 325 325 325 326 325 319 304 304 323 328 327 325 308 303 303 302 298 298 296 294 291 294 296 295 296 294 292 293 291 289 289 288 288 289 288
322 322 321 321 321 322 321 322 323 324 324 324 325 325 323 311 295 306 326 327 328 312 306 304 301 297 295 294 297 292 296 296 298 297 295 293 294 292 290 290 292 290 290 288 287
321 321 320 320 321 321 320 321 323 323 323 324 325 324 312 302 301 308 320 315 306 306 302 301 298 296 293 295 296 293 295 296 297 296 295 295 292 291 288 290 291 290 289 287 287
318 320 319 319 320 320 319 321 323 323 323 324 325 322 306 298 307 310 306 306 304 303 301 300 298 298 295 296 292 294 295 295 296 295 295 293 291 291 290 290 289 289 287 287 288
319 320 319 319 320 319 318 320 322 322 323 324 325 315 305 301 307 307 305 302 303 302 301 300 299 298 297 294 297 294 291 293 293 294 293 293 288 290 291 289 288 287 287 288 288
318 319 319 318 319 319 317 320 321 322 323 323 324 311 300 308 306 308 305 304 303 301 302 301 301 299 296 296 295 290 289 286 292 293 293 291 286 290 291 289 287 285 285 287 286
318 319 319 319 318 318 317 319 320 322 323 322 311 307 298 312 306 308 303 301 301 301 300 302 300 296 295 290 287 288 284 285 288 293 291 289 285 289 289 288 285 283 284 284 283
318 318 318 318 318 317 317 320 320 317 314 311 307 299 301 301 307 306 303 301 299 300 300 299 294 291 290 288 285 284 282 284 284 288 289 288 288 288 289 286 285 282 282 282 282
318 318 318 318 318 318 314 303 302 300 301 299 297 299 302 308 305 303 301 299 300 298 294 295 291 289 290 288 288 285 284 283 285 290 288 288 289 287 289 285 282 280 280 280 281
319 318 317 317 318 317 305 297 299 300 294 299 300 302 305 304 297 300 300 295 296 293 292 291 288 292 292 290 288 286 285 284 287 289 287 286 286 288 288 286 285 282 280 280 281
319 317 316 316 316 308 300 299 307 304 292 296 301 302 303 301 297 297 296 295 293 291 290 289 291 292 290 287 286 285 284 284 284 285 285 284 282 287 285 285 282 282 282 281 281
319 317 315 315 306 302 302 305 307 303 287 290 295 300 299 298 293 299 297 295 293 292 290 288 290 289 287 287 288 283 286 285 284 281 277 281 276 281 280 283 281 282 279 279 280
318 316 314 313 298 299 304 306 304 298 276 291 298 301 299 294 295 296 297 294 292 291 290 290 286 286 286 287 288 285 285 284 282 280 277 279 276 280 280 280 280 281 279 278 279
318 315 310 308 299 302 304 301 298 286 279 290 297 294 293 293 294 296 295 294 293 288 287 289 289 287 287 288 287 287 285 283 280 278 273 278 277 276 276 280 282 282 279 279 279
318 314 308 305 298 302 303 297 283 279 289 290 292 294 291 291 291 292 291 288 289 285 283 286 286 286 288 285 286 285 280 276 273 271 275 276 275 283 282 281 283 282 279 279 279
317 312 307 306 304 303 300 291 279 284 288 293 292 291 290 291 291 290 287 287 288 287 282 282 281 285 287 286 284 283 281 276 270 271 278 277 275 279 279 280 282 282 280 278 278
313 306 306 306 305 304 290 283 285 287 291 292 290 286 287 290 290 287 285 285 289 288 286 281 281 283 283 284 284 281 278 281 275 262 266 274 277 281 277 277 277 277 278 277 278
309 308 304 306 305 298 285 288 289 293 294 292 287 290 286 288 287 286 285 287 288 289 288 285 281 281 280 282 281 281 282 276 275 270 267 273 274 279 275 275 276 276 277 277 278
308 300 301 306 304 295 288 288 291 296 295 292 289 288 288 287 287 283 286 288 289 286 286 283 283 279 279 278 280 276 276 277 278 278 272 271 279 279 278 279 276 277 278 277 278
304 292 301 307 295 289 290 290 294 293 296 294 292 291 290 289 286 285 286 290 289 286 284 284 281 277 277 279 279 278 280 280 276 273 276 274 278 280 281 281 280 278 278 278 278
299 294 304 303 288 289 289 291 293 291 293 293 291 292 292 288 286 289 290 290 287 287 284 283 279 273 278 277 276 276 277 280 278 278 276 271 278 279 278 278 279 277 277 278 278
299 290 296 298 296 290 289 290 290 294 293 292 291 292 289 288 291 288 286 286 286 286 292 289 280 281 280 282 279 275 274 277 280 277 277 277 279 284 280 277 276 276 277 277 277
299 292 294 288 291 293 292 290 289 289 292 293 291 291 289 287 288 287 288 282 282 286 284 284 279 279 284 285 280 282 282 276 276 279 278 281 282 285 288 284 277 278 277 276 276
299 295 293 288 291 291 292 289 289 289 290 290 290 291 292 288 289 286 290 283 284 279 279 280 279 279 278 281 280 279 282 282 281 282 281 281 280 288 288 281 276 276 276 277 276
307 302 298 294 289 289 289 290 290 292 293 294 293 292 289 292 295 295 291 290 290 284 278 277 278 278 278 280 278 274 279 280 282 283 282 277 283 287 283 277 276 276 277 277 276

GFSSW_sfc_thetae_015.txt.gz
Theta_e
325 325 325 325 324 324 323 324 324 325 326 326 326 327 327 325 322 306 302 309 314 330 325 307 303 303 302 302 302 298 292 288 288 290 290 293 292 292 291 290 289 290 289 291 292
325 324 324 324 324 324 324 324 324 325 325 325 325 327 326 324 308 303 317 324 331 329 304 302 300 301 299 298 298 295 290 290 292 292 292 293 292 292 290 288 286 287 289 291 290
321 323 323 323 323 324 323 323 323 324 324 324 325 326 325 318 302 302 325 327 327 325 306 302 301 300 296 297 295 292 289 294 294 294 295 293 291 292 290 288 287 286 287 288 287
319 320 322 322 322 323 323 322 323 324 324 324 324 325 322 309 293 304 326 326 325 310 304 302 300 295 294 293 296 291 294 295 297 296 294 292 293 291 290 290 292 289 289 287 286
318 318 321 321 321 323 323 321 323 323 323 323 324 323 310 300 300 308 319 315 304 304 301 299 297 294 291 292 294 291 293 294 296 295 293 294 291 291 289 287 290 289 288 286 285
318 318 320 320 321 322 322 321 322 323 323 323 324 321 305 296 306 308 304 304 302 302 300 299 296 297 294 294 291 292 294 294 295 294 293 292 289 290 288 287 287 287 286 285 286
318 317 320 320 321 321 321 320 321 321 323 323 324 313 303 301 305 306 305 301 301 301 300 298 298 296 296 292 295 293 291 292 292 293 292 292 289 289 289 287 286 286 285 286 286
319 317 319 320 320 320 321 320 320 321 323 323 323 309 298 306 305 306 303 302 302 301 301 299 299 298 294 294 294 290 288 286 290 292 291 291 286 291 289 287 285 284 283 285 285
318 318 319 319 319 319 320 319 320 322 322 322 310 303 296 311 304 306 301 299 300 300 299 302 299 294 293 289 287 286 284 284 288 292 290 288 286 289 288 287 285 284 284 285 283
318 318 319 319 319 319 318 319 318 316 313 311 306 301 299 300 305 305 301 300 298 298 299 298 293 290 289 288 284 285 283 284 283 287 288 286 287 288 287 287 286 285 283 284 282
318 319 319 318 319 320 313 302 301 297 300 296 294 297 300 305 304 301 299 298 298 297 293 293 290 287 290 289 287 284 283 282 284 289 287 287 288 292 287 286 284 281 282 282 281
318 319 319 318 319 319 302 297 298 298 294 297 298 299 303 302 297 299 299 294 294 292 291 290 288 291 291 289 286 284 283 283 286 287 287 285 285 289 287 287 287 285 283 282 281
318 318 318 317 317 306 299 297 305 302 292 294 300 300 301 301 297 296 297 294 292 291 290 289 290 291 289 286 285 284 283 283 284 285 284 282 280 284 285 287 287 287 285 283 281
317 318 318 315 305 300 300 304 305 302 284 288 294 298 298 297 293 297 296 294 292 292 290 288 289 288 286 286 286 282 286 285 284 280 277 282 277 280 283 284 283 284 281 282 280
317 318 317 312 299 297 302 304 302 295 274 290 295 300 297 293 293 293 295 293 291 290 290 290 286 286 285 286 287 286 285 282 281 280 277 278 276 279 279 281 285 282 282 282 281
316 317 313 308 301 299 302 299 296 285 277 287 294 292 292 292 292 294 293 294 291 289 286 289 288 287 287 286 286 287 283 282 278 277 273 278 277 276 279 282 282 282 282 281 280
315 316 309 305 301 302 302 295 283 278 287 287 291 292 289 289 290 291 289 288 288 284 284 285 285 286 288 284 285 284 281 277 275 272 275 276 274 283 286 286 283 282 281 280 280
315 315 309 307 303 302 297 290 278 283 284 291 292 290 289 290 289 289 287 286 288 287 282 283 283 285 287 285 284 282 283 278 270 271 277 276 275 281 282 280 280 281 282 280 279
314 308 307 305 304 302 290 281 284 286 288 291 289 286 286 288 289 286 285 285 289 289 287 281 281 282 283 283 284 281 278 282 277 261 267 276 277 282 279 278 277 279 279 278 279
309 308 306 307 304 297 287 288 287 291 291 291 287 289 285 287 286 285 285 287 289 289 288 286 282 281 280 281 280 280 282 277 274 267 265 273 275 280 281 279 276 276 277 278 278
308 299 301 306 303 296 288 288 289 294 294 291 287 285 287 287 287 284 286 288 288 286 286 285 284 279 279 279 280 277 277 277 277 277 270 267 278 282 284 282 277 277 278 278 278
305 293 299 306 295 291 289 288 293 291 295 292 291 290 289 288 286 285 285 290 290 288 285 285 283 277 278 277 279 279 280 281 276 272 272 273 279 283 282 283 278 278 279 278 278
300 297 302 302 288 289 287 289 293 290 292 291 290 291 291 288 286 286 288 291 289 288 285 285 281 273 277 278 277 276 278 280 278 277 277 273 279 280 280 278 278 278 278 278 277
299 291 296 297 296 290 288 288 288 292 292 291 290 291 288 287 290 287 286 288 287 287 294 292 282 281 280 281 278 275 276 278 280 276 279 280 281 286 287 284 279 277 277 277 277
299 294 294 289 291 293 291 288 287 287 291 292 289 290 289 286 287 287 290 284 283 286 285 286 282 281 286 287 281 281 283 276 276 280 279 283 283 286 289 290 287 283 278 277 276
298 296 294 294 292 291 291 289 287 288 289 288 288 289 291 288 288 286 290 288 287 280 281 281 282 281 281 283 281 280 284 283 280 282 282 283 282 290 292 292 290 281 277 276 277
308 305 298 295 292 289 289 289 289 291 291 292 291 290 288 290 294 294 292 292 291 287 279 277 277 275 279 281 280 277 283 284 285 286 285 280 285 290 289 282 281 278 278 277 277

GFSSW_sfc_thetae_018.txt.gz
Theta_e
323 325 325 325 325 325 325 325 325 325 325 326 326 327 327 326 322 305 300 309 312 329 324 305 302 301 301 301 300 297 291 287 287 288 291 292 291 290 290 289 287 289 289 290 291
321 321 324 325 325 325 325 324 324 324 324 325 325 326 326 324 304 301 317 324 328 328 302 301 299 300 298 297 297 293 289 290 291 291 291 292 292 291 290 287 286 286 288 289 289
319 320 321 324 324 325 325 324 323 324 324 324 324 325 324 318 301 299 324 326 326 323 304 301 300 299 295 295 293 291 288 292 293 294 293 292 290 291 289 287 288 286 287 287 286
318 318 319 322 323 324 325 325 323 323 324 324 324 324 321 307 292 303 325 325 322 309 302 299 299 295 293 292 294 292 293 293 295 295 293 291 291 290 290 291 290 289 289 286 285
318 317 317 320 322 323 324 324 323 322 323 324 324 323 310 301 300 307 319 314 303 303 299 298 296 294 291 291 292 292 292 293 294 294 292 292 291 291 289 288 288 288 287 286 285
319 319 318 319 321 322 323 323 323 322 322 324 323 321 306 296 306 305 302 302 301 301 298 298 295 296 293 293 292 291 292 293 294 293 292 291 289 290 289 286 286 287 286 285 285
319 319 319 319 320 321 322 322 322 321 322 323 324 313 300 300 304 304 304 299 299 299 298 297 297 296 294 290 294 291 290 290 290 291 291 291 288 289 288 286 285 285 284 285 284
318 318 319 319 320 320 321 322 321 321 322 323 323 307 298 305 304 304 301 300 301 300 299 299 298 297 293 293 292 288 288 286 289 291 290 289 286 291 288 286 284 283 283 284 285
317 317 319 320 319 319 320 320 319 321 322 322 308 302 297 310 303 304 299 299 299 299 298 302 298 293 292 289 287 286 284 283 287 291 289 288 286 290 286 285 285 284 284 285 285
317 317 319 319 319 319 320 319 317 316 313 309 305 299 298 298 303 303 299 299 297 297 298 297 293 290 288 287 281 284 282 283 284 287 287 286 287 291 287 285 286 285 284 284 285
316 316 319 319 320 320 313 300 299 295 298 296 294 296 298 303 303 300 298 298 297 295 293 292 290 287 288 289 288 287 283 282 283 287 286 286 287 291 291 285 285 284 283 284 285
316 317 318 319 319 319 301 296 296 296 293 296 296 297 301 301 296 298 298 294 293 290 290 289 287 290 291 289 286 284 282 282 285 285 286 285 285 288 291 288 287 287 284 284 285
315 316 317 319 317 305 298 297 304 300 291 293 298 298 299 301 296 296 296 293 290 289 289 287 289 291 289 286 285 283 282 282 283 283 283 281 280 283 287 287 287 287 288 286 285
315 314 317 316 305 297 299 303 303 300 282 287 293 297 299 297 293 296 295 293 290 289 289 289 289 288 286 286 286 282 284 283 282 280 278 282 279 281 287 287 285 286 284 285 284
315 314 317 312 304 296 302 303 301 293 274 288 294 299 296 292 291 292 294 292 289 290 289 289 286 285 285 286 286 284 283 281 280 278 275 277 275 279 280 283 288 288 285 285 283
315 314 316 306 301 298 302 299 294 283 276 285 293 292 291 292 291 292 291 293 290 289 287 288 287 286 286 285 285 285 282 280 277 276 272 279 278 277 279 283 284 284 283 283 282
315 314 311 306 301 300 301 294 283 277 285 285 289 290 288 289 289 290 288 287 286 284 284 285 285 285 287 284 284 282 281 277 274 272 276 276 274 283 284 286 286 286 283 281 280
315 314 311 308 302 301 294 289 279 282 283 289 291 289 287 289 288 288 286 285 287 286 282 282 282 284 286 286 284 281 283 278 270 270 278 275 275 282 284 286 283 280 280 281 278
314 308 307 307 303 301 289 281 282 285 286 288 288 286 286 288 288 286 285 285 288 289 287 282 282 282 283 283 284 281 279 281 277 263 268 278 279 282 284 282 281 279 280 280 277
309 307 306 308 305 301 287 286 285 290 289 290 285 287 283 286 285 285 285 286 288 290 289 287 283 281 280 281 279 280 282 277 276 270 266 276 277 281 285 285 284 279 278 279 277
307 300 301 306 305 298 288 286 287 292 291 289 286 284 286 285 286 283 285 287 289 287 288 287 286 281 280 279 279 277 277 277 279 276 271 269 279 282 285 286 285 282 280 279 278
305 294 300 307 295 294 288 287 292 289 292 291 289 288 286 288 286 285 285 290 291 288 286 287 285 283 283 277 278 279 280 281 278 275 271 272 280 284 285 285 284 281 281 278 278
300 299 302 305 287 289 287 287 291 288 290 289 288 290 290 287 285 286 289 290 289 289 286 286 283 277 279 278 278 277 279 280 279 278 275 273 280 283 283 282 281 279 279 278 277
299 291 295 297 296 290 288 287 287 291 291 289 288 290 286 287 290 287 285 287 288 289 293 292 284 282 281 282 280 277 278 280 282 279 279 279 282 287 289 289 291 286 279 278 277
300 294 295 288 291 292 291 288 287 286 290 291 288 289 288 285 287 286 288 285 284 287 285 287 283 284 286 287 280 280 281 280 278 281 279 283 282 286 289 290 291 292 285 278 276
301 296 296 293 293 292 292 289 287 288 287 286 287 287 289 287 287 285 288 287 288 280 282 282 283 284 282 285 282 281 284 284 280 282 281 282 282 290 293 293 292 291 289 279 277
308 304 298 294 292 290 289 290 290 292 292 292 291 289 288 289 292 293 292 290 290 287 279 277 279 274 279 283 279 276 282 285 286 287 284 279 285 290 289 289 290 290 284 281 279

GFSSW_sfc_thetae_021.txt.gz
Theta_e
321 322 323 326 326 326 326 326 325 325 325 326 325 327 326 326 323 304 300 309 312 329 325 306 303 304 305 304 304 301 293 290 291 290 293 294 294 294 294 293 292 293 293 293 294
320 320 321 322 324 325 326 326 325 324 324 325 325 325 326 324 304 300 316 326 329 328 303 302 301 303 300 300 299 296 291 293 294 293 294 294 295 294 293 291 291 290 291 291 292
319 318 319 320 322 324 325 325 325 324 324 324 324 325 325 319 302 300 324 326 326 322 304 302 302 301 298 299 297 294 291 294 295 296 295 294 293 293 292 291 294 292 289 290 290
319 319 319 320 321 322 324 324 325 324 324 323 324 324 322 307 293 303 325 324 322 309 303 300 300 298 295 294 296 293 294 295 297 297 295 294 293 292 292 296 295 293 292 290 289
318 319 320 320 321 321 322 323 324 324 323 323 324 323 308 298 300 307 318 313 303 302 300 299 298 296 294 293 294 293 293 295 296 295 294 293 293 293 291 294 292 290 289 289 289
317 318 319 320 321 321 321 322 324 323 322 323 324 321 301 295 305 305 302 302 300 300 298 299 297 297 295 294 293 293 294 294 295 294 293 293 292 292 293 289 288 288 288 289 289
317 317 318 320 321 321 321 322 323 322 322 323 323 311 300 300 305 303 303 299 299 299 299 298 299 297 296 293 295 293 291 292 292 293 293 292 290 290 292 288 288 287 287 288 288
317 316 317 319 320 321 321 321 321 321 321 323 322 306 298 304 304 303 301 300 300 300 300 299 299 298 294 295 292 290 289 287 291 292 292 292 288 293 289 288 289 286 286 287 287
316 316 316 318 319 320 320 320 319 320 322 321 306 301 297 309 302 303 299 299 299 299 299 302 298 294 293 290 288 288 285 285 288 291 290 290 289 292 288 287 288 286 286 286 287
315 315 316 318 319 320 319 319 316 315 312 308 304 299 297 297 302 302 298 299 297 298 298 297 293 291 289 288 283 284 284 285 285 289 288 287 288 293 290 287 289 289 287 286 286
315 315 315 317 319 320 313 300 298 293 297 296 295 294 297 302 302 299 298 298 297 295 291 292 290 287 289 289 287 287 286 285 286 287 287 286 288 292 294 287 289 288 286 286 286
316 314 314 316 319 319 300 297 296 296 292 297 295 296 299 301 295 298 297 294 293 289 291 289 288 291 291 289 288 285 284 284 286 286 286 285 286 290 291 293 293 291 288 287 287
316 314 313 315 318 302 297 298 303 299 291 294 296 296 297 301 295 296 296 292 290 288 288 287 288 290 290 286 286 284 283 283 285 284 284 282 281 283 287 289 290 291 290 288 288
316 315 314 316 305 299 298 300 302 298 282 286 291 297 299 298 293 296 294 293 290 288 288 289 289 289 286 287 287 284 285 284 283 282 279 283 280 282 286 288 289 291 287 289 287
316 315 315 313 303 297 300 302 299 291 274 287 291 298 296 294 292 292 294 292 289 289 289 287 286 285 286 287 287 285 284 283 282 280 277 279 277 282 281 285 289 291 288 287 287
316 315 314 307 301 299 301 297 293 282 275 284 292 291 291 291 291 292 291 292 291 289 286 288 287 287 288 285 284 285 283 282 278 277 273 281 280 279 281 285 287 289 289 288 285
316 314 311 307 301 300 299 294 281 275 284 283 287 289 288 288 289 290 288 286 286 283 283 285 284 285 286 285 285 283 282 278 275 273 277 276 276 284 285 286 288 291 289 286 284
315 314 311 308 304 302 294 290 276 280 282 288 289 287 287 288 287 288 286 284 287 285 282 283 282 284 286 287 284 282 283 278 271 273 279 275 275 283 286 290 288 286 285 283 283
315 309 307 306 304 301 292 282 281 283 286 286 288 285 285 288 287 285 284 284 287 289 287 282 282 282 283 283 284 281 280 283 277 263 270 280 281 284 285 285 284 284 281 282 282
310 306 306 308 305 301 285 285 284 288 287 288 284 286 281 285 285 285 284 286 288 290 291 286 283 281 281 281 279 282 283 278 277 272 268 279 281 283 284 286 287 285 285 283 282
308 300 304 307 309 299 287 285 285 290 290 287 284 282 284 284 286 283 284 286 289 288 290 288 287 282 280 280 280 278 278 278 280 277 273 274 281 283 286 286 287 287 285 284 283
305 295 302 308 295 295 288 287 292 289 290 289 287 286 284 285 284 283 284 289 290 289 286 287 286 283 284 278 279 280 281 282 278 275 273 273 280 287 286 287 286 287 285 284 283
301 300 302 306 289 289 287 287 289 287 288 288 287 288 287 285 284 284 286 289 289 289 286 287 283 279 281 279 278 279 279 280 280 279 278 274 281 287 284 285 285 286 283 283 282
301 292 295 297 297 293 290 288 288 290 290 288 287 288 286 284 289 286 283 286 288 289 294 293 285 284 281 283 280 277 277 281 282 280 280 280 283 288 290 289 287 285 282 283 282
303 294 293 286 290 293 292 290 289 286 289 290 287 288 287 284 286 285 287 286 286 289 288 288 284 286 287 288 284 281 281 281 279 282 279 283 283 287 290 291 292 292 292 289 280
301 295 296 293 293 291 292 289 289 291 288 287 287 287 289 286 286 285 287 287 287 281 283 284 283 285 283 286 285 283 284 285 284 283 282 283 283 290 292 292 292 292 292 290 287
307 306 298 293 292 289 289 290 291 293 293 292 290 289 287 288 292 293 293 291 290 288 282 281 281 278 279 284 282 276 283 285 286 287 286 282 287 291 290 290 291 291 291 291 290

GFSSW_sfc_thetae_024.txt.gz
Theta_e
321 322 322 322 324 325 326 327 327 326 325 326 326 326 326 326 325 311 307 313 316 329 325 311 310 310 313 310 310 308 303 299 299 298 300 301 301 300 300 301 300 302 301 300 303
320 320 322 323 323 324 325 326 326 326 325 325 325 326 326 324 313 308 317 324 328 326 310 309 308 310 309 307 308 306 302 300 302 302 301 301 302 302 300 300 299 299 300 298 300
319 320 322 322 322 323 323 324 325 325 325 324 324 325 324 321 309 309 322 328 328 323 311 309 309 308 306 307 305 303 301 302 302 302 302 301 300 302 301 300 304 303 303 298 298
318 319 320 321 322 323 323 323 324 325 325 324 324 324 323 315 300 310 326 324 323 314 309 307 307 306 305 303 304 301 301 301 302 302 300 300 301 299 301 305 304 306 304 299 298
318 317 318 319 321 322 322 323 323 324 324 323 324 323 316 308 308 312 320 316 312 309 307 307 307 305 304 303 301 301 301 301 302 301 301 299 300 301 300 304 304 300 299 299 299
317 317 317 318 320 321 322 322 323 323 323 323 324 322 311 302 311 311 308 307 307 308 306 307 307 306 303 302 302 302 301 301 301 301 300 299 300 297 303 303 302 298 299 299 299
317 316 316 317 319 320 321 322 323 322 322 322 324 316 309 307 312 310 308 306 306 307 306 305 307 306 305 301 301 300 298 300 300 300 300 298 298 297 304 298 299 298 299 299 299
316 316 316 316 318 319 321 322 321 321 321 323 322 313 306 310 313 308 308 306 307 307 307 306 307 305 302 301 299 298 298 297 299 298 298 298 295 303 304 298 299 300 299 298 298
316 315 315 317 317 318 320 320 320 320 322 322 315 310 304 313 308 309 308 305 305 306 307 306 307 303 301 299 298 297 295 294 296 299 296 297 297 302 298 297 299 302 300 298 297
316 315 315 316 317 318 319 320 317 318 315 310 309 306 306 304 308 307 306 306 304 306 305 305 304 301 299 299 292 295 294 295 294 297 295 295 296 300 302 297 299 302 302 300 297
315 315 314 315 316 319 316 310 306 303 305 305 304 304 302 308 308 305 305 304 305 303 298 301 299 296 299 300 299 295 294 294 298 295 294 296 295 298 300 300 298 299 301 301 298
316 315 314 315 316 318 308 305 304 302 298 303 301 300 303 308 302 304 304 301 300 296 299 297 295 300 299 297 295 295 294 295 297 292 292 294 292 295 297 298 299 300 301 302 299
316 315 315 315 316 309 305 304 309 307 300 300 301 301 302 305 301 302 302 300 298 295 296 295 298 295 296 295 293 294 294 295 293 292 291 289 290 292 296 296 298 299 300 301 300
316 315 315 315 309 309 304 307 309 306 292 293 295 301 303 303 298 300 300 300 297 295 295 296 297 295 294 294 295 292 296 294 291 290 289 290 286 294 296 295 296 300 301 299 298
316 316 315 314 309 305 305 307 307 300 282 293 295 302 301 298 297 296 299 299 296 294 296 294 292 292 293 294 295 294 291 290 289 289 286 290 285 291 289 290 295 298 301 300 299
316 316 314 310 309 308 306 305 302 289 280 290 297 295 296 296 295 296 296 299 298 295 294 295 294 294 295 290 291 290 290 288 286 287 283 290 288 289 290 292 295 298 300 298 296
316 315 313 311 307 307 306 302 289 282 289 288 293 294 294 293 293 293 292 292 291 289 290 293 292 292 292 291 290 290 290 287 286 284 284 286 284 288 293 295 296 298 301 297 296
315 315 312 311 311 308 302 296 282 288 289 293 293 292 292 294 293 292 290 290 292 291 289 289 288 289 292 294 294 289 292 288 282 283 285 283 281 290 295 297 297 295 296 294 293
315 313 310 311 308 305 297 286 286 289 291 290 292 290 290 292 293 291 291 291 294 293 290 287 289 288 288 289 292 288 287 291 287 279 280 288 292 293 293 292 293 292 294 295 294
312 308 307 312 308 305 292 288 290 293 291 293 288 292 288 291 288 290 290 294 293 294 298 293 287 288 285 288 286 287 289 285 286 282 281 286 288 289 291 291 293 292 294 297 295
311 301 308 310 308 299 288 289 291 293 293 291 290 290 289 290 291 289 291 293 295 293 293 292 292 288 285 285 288 283 285 285 284 284 282 281 286 293 292 293 292 294 297 298 296
307 295 305 308 294 295 290 293 293 292 293 293 291 291 290 290 288 290 290 292 296 293 289 293 291 288 290 285 285 287 288 288 284 283 284 284 285 292 294 295 294 294 294 296 295
302 300 304 306 289 288 293 292 293 292 292 291 290 292 292 289 285 289 291 295 294 293 290 290 287 285 287 283 283 284 284 287 288 288 284 282 284 294 295 295 295 294 296 294 295
302 292 295 298 299 294 292 291 290 295 293 291 289 291 289 287 290 288 289 291 293 294 295 294 288 287 283 287 287 283 284 285 287 284 284 285 287 291 294 294 295 296 294 294 294
304 295 294 286 290 293 295 293 292 290 293 293 289 289 289 286 288 287 290 291 289 292 291 291 285 288 289 290 289 288 287 287 283 285 283 287 287 291 293 294 296 297 297 296 296
298 296 295 294 294 291 292 291 291 294 294 290 289 292 291 287 289 289 289 289 288 286 289 289 284 286 283 287 287 285 288 288 288 288 288 287 285 293 294 295 294 295 295 294 294
300 301 297 292 291 289 289 290 291 294 296 296 294 292 291 291 294 295 295 294 293 290 288 286 285 284 280 286 285 280 285 287 288 290 289 284 290 294 293 294 294 295 295 294 294

GFSSW_sfc_thetae_027.txt.gz
Theta_e
321 322 323 324 324 325 325 325 326 326 326 326 325 326 326 326 324 315 310 315 318 328 323 314 313 313 316 313 313 312 303 301 302 301 303 305 304 305 306 306 305 306 306 305 307
320 320 322 323 323 324 324 324 324 325 326 325 324 325 326 325 317 311 321 324 326 327 314 311 310 312 311 311 311 308 304 304 306 306 304 305 305 306 302 303 304 305 306 303 304
319 319 319 321 322 323 324 324 324 324 325 325 324 325 325 323 311 311 325 327 326 323 314 312 312 311 309 310 309 307 303 306 305 306 305 305 304 306 303 302 306 306 307 303 302
318 318 318 318 320 322 323 323 324 324 324 324 324 325 324 318 301 312 325 323 323 318 312 310 310 307 307 306 309 302 306 305 305 305 303 303 306 303 304 306 308 311 311 306 302
317 317 317 317 318 320 321 322 323 324 323 324 324 324 319 309 309 314 318 318 315 312 310 309 309 309 305 307 306 303 306 305 306 304 304 304 302 303 305 308 310 307 305 306 303
317 317 316 316 317 319 320 321 322 323 323 323 323 323 313 303 314 315 311 310 311 310 309 310 309 310 306 305 304 305 304 304 305 304 304 301 303 302 306 309 308 307 304 305 304
318 317 316 316 318 319 319 320 322 322 322 322 323 319 310 307 315 313 311 310 309 310 308 310 311 308 308 305 306 303 300 304 304 304 302 302 299 300 306 305 305 306 305 305 305
317 316 315 315 317 318 318 320 321 321 322 322 323 316 306 313 317 310 311 308 310 310 310 310 310 309 306 305 303 300 301 297 304 303 302 301 297 304 308 305 303 305 305 304 304
316 316 316 316 316 317 318 319 320 320 321 322 317 313 304 312 309 313 311 307 308 309 309 308 310 307 304 301 300 301 296 298 300 302 300 299 298 304 306 303 303 305 306 306 304
316 315 316 316 316 316 317 319 319 317 317 314 312 307 308 305 310 310 309 309 306 307 306 306 306 302 302 300 292 296 297 298 297 301 299 298 297 302 305 305 303 304 305 305 306
316 316 316 316 316 317 316 313 308 306 308 306 307 307 304 310 311 308 307 306 306 305 299 304 299 296 300 302 301 299 297 296 298 301 298 298 298 300 304 304 303 304 304 305 305
316 316 316 316 316 317 314 306 308 305 298 306 305 305 307 311 305 307 307 302 301 298 301 299 295 301 302 301 300 299 296 295 299 301 296 297 296 300 302 302 303 303 303 304 305
316 316 316 316 316 314 309 307 312 311 301 302 305 303 304 306 302 304 304 303 300 298 298 296 299 299 299 298 296 296 294 295 295 298 295 294 292 296 300 301 302 303 303 304 304
317 316 316 315 311 313 307 311 312 310 293 296 297 302 304 305 298 303 305 303 300 296 298 297 301 298 297 295 297 292 299 298 296 294 290 294 287 296 298 299 300 301 303 304 305
316 316 316 314 310 309 307 311 311 305 285 296 296 305 304 299 299 298 301 300 297 296 297 295 297 295 294 295 298 295 294 294 295 293 292 292 289 293 296 294 296 299 302 304 306
316 316 315 312 313 312 311 309 307 291 284 292 298 296 298 298 296 297 298 301 300 297 297 296 297 297 297 294 295 295 293 293 292 291 285 291 290 291 294 294 297 298 300 303 302
316 315 313 314 309 312 311 305 290 284 294 293 294 296 296 296 296 295 293 292 292 289 291 295 295 297 295 293 293 293 292 287 287 286 285 294 290 292 297 298 298 298 300 302 301
316 315 313 314 316 314 308 296 283 291 293 296 295 295 293 296 295 294 294 292 295 294 292 291 289 294 294 295 295 291 293 289 283 284 287 291 286 292 299 300 300 300 301 301 299
317 314 311 313 314 312 299 287 288 293 296 294 294 291 292 294 295 295 294 294 297 295 290 290 290 291 292 292 296 291 287 294 290 288 285 288 293 298 298 297 298 298 297 298 299
313 310 308 314 310 305 292 287 293 298 295 295 289 293 290 293 291 292 293 297 296 297 298 295 288 293 287 290 290 291 292 287 288 282 281 287 290 291 296 295 296 296 296 299 301
311 303 311 313 308 299 285 287 294 298 296 292 291 292 293 292 294 292 292 297 298 297 297 296 292 290 288 287 289 285 286 287 287 289 284 282 287 295 295 297 297 297 297 299 302
308 296 310 310 295 293 287 291 296 296 295 293 293 291 291 292 291 291 291 295 299 297 291 294 292 287 290 294 289 291 291 290 285 284 286 285 285 295 298 298 299 297 298 301 301
303 303 307 308 291 286 291 292 294 295 295 291 290 292 293 289 286 291 292 297 296 295 292 292 287 284 287 288 286 286 289 289 291 289 285 283 285 296 297 298 296 296 298 299 299
302 294 295 299 300 295 290 291 291 298 296 295 291 292 289 287 291 287 290 296 297 295 296 295 289 286 283 287 290 287 288 289 288 284 284 285 288 292 295 296 298 298 299 299 300
300 297 296 288 291 294 294 293 291 291 297 297 292 291 290 288 290 287 291 292 294 293 292 292 285 287 288 290 290 288 288 288 285 287 284 287 288 292 295 296 298 298 298 297 297
293 295 295 294 295 292 293 291 291 294 295 293 292 293 293 289 291 291 292 291 290 289 289 291 283 286 284 288 288 285 288 289 288 289 288 288 287 294 296 297 296 296 297 296 297
297 296 288 288 290 290 290 292 292 296 297 298 297 293 292 293 296 298 298 298 295 290 288 286 284 283 280 286 286 281 286 287 288 290 290 286 291 296 296 296 296 297 298 298 297

GFSSW_sfc_thetae_030.txt.gz
Theta_e
322 322 323 323 324 325 325 325 325 325 326 326 326 326 326 327 325 317 309 318 320 327 323 314 313 312 314 312 312 310 298 296 299 298 298 301 299 301 300 298 300 303 300 300 303
320 319 320 321 322 323 324 325 325 325 325 325 325 325 326 325 317 312 323 328 328 327 314 310 309 310 307 309 308 303 299 301 301 301 298 301 300 300 297 298 299 300 301 302 301
319 319 319 319 320 322 323 323 324 324 324 324 325 325 325 322 312 312 329 329 328 324 315 312 311 310 306 308 306 303 298 302 302 302 302 301 300 302 298 297 299 300 301 299 298
318 318 318 318 319 320 321 322 323 324 324 324 324 324 324 320 300 314 326 326 325 317 312 309 309 306 303 303 307 299 304 304 305 303 301 299 301 299 300 300 303 302 304 299 298
319 318 318 318 318 319 320 321 322 323 323 323 324 324 320 309 308 315 321 321 315 313 309 308 305 306 303 303 304 300 301 304 303 301 300 302 299 299 299 302 305 303 302 299 299
318 318 317 317 318 318 319 319 321 322 323 323 323 323 313 301 314 314 310 312 312 309 307 308 306 307 303 302 300 301 301 301 302 302 301 298 298 298 299 303 303 303 300 300 300
318 318 317 317 317 318 319 319 320 321 322 322 323 320 310 305 314 312 310 309 309 308 306 308 308 305 306 302 304 301 296 299 300 300 299 300 295 296 301 300 300 301 301 300 300
317 316 317 317 317 317 318 319 319 320 322 323 323 317 305 313 313 310 310 308 309 309 309 309 308 306 304 303 300 295 295 291 297 300 298 297 290 299 302 300 298 299 298 300 300
316 316 316 317 317 316 317 317 318 321 322 321 317 313 303 314 309 311 310 307 307 308 308 308 309 303 301 295 293 295 289 292 296 300 297 295 292 298 299 298 297 298 298 299 300
316 316 317 317 317 317 317 318 320 317 317 318 313 306 306 305 309 309 308 308 305 305 304 303 301 297 296 293 287 290 291 293 292 295 295 292 292 297 299 297 297 298 298 299 300
317 316 317 317 317 318 315 312 306 307 308 304 305 304 305 309 311 307 307 305 305 302 295 299 293 291 294 297 297 295 293 292 295 298 294 293 294 296 299 297 297 300 300 299 300
317 317 317 317 317 317 314 305 306 305 297 304 304 306 308 309 303 306 306 299 299 294 297 295 292 297 299 298 295 293 291 292 295 296 294 292 292 296 297 298 299 299 300 300 299
318 317 316 317 317 315 309 307 312 311 299 300 303 302 303 306 301 302 302 300 297 294 295 292 295 300 297 295 293 293 291 291 291 294 291 289 287 291 295 298 299 300 300 300 298
318 317 316 316 312 311 307 310 311 311 290 294 298 302 303 304 297 304 303 300 297 294 295 294 298 296 294 293 294 289 294 293 292 288 284 290 281 289 292 294 295 296 296 298 296
317 317 317 315 309 307 307 310 309 306 280 297 295 305 304 298 297 297 300 298 295 294 294 292 292 292 292 293 295 291 293 290 289 288 286 287 283 287 292 290 293 295 296 298 296
317 317 316 313 313 312 312 310 305 288 279 292 297 296 296 297 296 296 296 298 297 294 294 293 295 293 293 292 293 292 290 288 287 285 279 285 285 285 288 291 292 294 295 296 296
317 316 313 315 309 312 311 305 288 281 294 292 293 295 294 294 294 293 291 289 288 285 286 290 292 293 293 289 290 289 287 280 278 277 279 287 284 289 290 292 293 293 295 295 296
317 316 313 314 313 312 306 294 281 292 292 296 295 295 291 294 294 292 291 288 291 290 287 286 285 291 292 292 290 287 288 281 274 275 282 285 280 286 294 296 294 295 296 294 294
317 314 312 312 313 311 298 284 285 294 296 294 294 289 290 292 293 292 289 290 292 292 287 286 286 289 290 290 293 287 283 289 283 277 276 284 286 290 292 293 293 294 293 292 292
313 310 309 314 312 306 292 288 289 297 297 293 287 290 287 290 289 290 290 293 293 295 296 291 286 289 286 288 288 286 289 282 283 273 272 282 281 285 289 292 292 290 291 292 293
310 304 311 314 311 299 286 288 294 298 297 294 292 289 288 287 289 289 290 293 294 294 296 292 289 285 286 283 285 283 283 284 285 283 277 278 282 287 291 292 292 291 292 293 294
307 297 309 310 296 295 290 293 297 297 299 296 293 291 291 291 288 287 287 289 295 295 290 292 289 284 287 289 288 288 287 286 282 281 280 281 284 291 291 291 293 292 293 294 294
300 301 308 308 292 292 290 293 296 295 295 295 293 294 293 289 286 289 290 295 296 294 290 291 285 280 283 286 284 284 286 289 289 286 283 280 283 293 296 294 292 291 291 293 293
298 292 297 300 302 296 295 291 291 297 295 296 295 295 291 290 292 289 290 293 296 295 296 295 287 284 280 284 287 285 286 287 286 282 283 283 285 290 293 293 295 296 296 293 293
296 292 297 289 290 293 295 294 292 291 296 297 293 293 290 288 289 287 289 291 294 295 292 290 283 285 287 288 288 287 286 286 284 285 281 285 285 289 292 293 295 296 296 294 295
290 292 291 289 290 289 290 289 290 293 294 292 291 294 294 289 291 290 291 291 290 290 290 290 283 284 282 285 285 283 286 286 286 286 287 286 285 292 294 295 294 294 295 294 295
295 294 289 286 287 286 287 289 290 292 293 296 295 294 292 294 296 297 298 298 296 292 288 286 284 282 279 284 283 280 284 285 286 288 287 283 288 293 293 293 294 295 296 296 296

GFSSW_sfc_thetae_033.txt.gz
Theta_e
321 320 322 322 323 323 324 325 325 325 325 325 325 326 326 326 324 316 307 315 317 329 321 310 309 307 307 306 306 303 292 290 293 294 295 297 296 298 299 297 297 301 297 298 300
319 319 320 321 321 322 323 323 324 324 324 324 324 324 326 324 315 309 320 334 331 328 311 305 303 305 301 303 303 298 292 294 298 296 295 297 296 298 295 295 296 297 297 299 299
319 319 319 319 320 320 321 322 323 324 324 324 324 324 324 322 309 307 330 333 331 325 311 307 306 305 300 301 300 298 294 298 299 299 298 297 296 298 296 294 296 297 296 297 295
319 319 318 318 318 319 320 321 321 322 323 324 324 324 323 316 291 310 328 329 328 314 309 305 303 301 298 298 302 296 300 301 302 300 298 296 298 296 296 299 301 300 300 297 295
319 319 318 317 317 318 319 319 320 320 322 322 324 324 316 304 304 315 324 323 314 312 305 303 301 300 297 298 299 298 298 301 301 300 298 299 297 296 297 298 300 301 299 297 296
318 318 317 317 317 317 318 318 319 320 321 321 323 323 306 297 309 313 309 310 309 306 304 303 302 302 299 299 296 297 298 298 299 299 298 297 295 296 297 299 299 299 298 297 297
318 317 317 317 317 317 318 318 318 320 320 321 322 319 307 300 309 309 308 306 305 305 302 303 304 301 299 298 300 298 295 295 297 298 297 297 294 294 300 298 298 298 297 297 297
317 316 316 317 317 317 318 318 319 319 320 322 323 313 298 310 306 307 306 304 305 305 305 305 305 303 299 299 297 292 290 288 294 296 297 296 290 296 300 296 297 297 295 296 298
317 316 317 317 317 317 318 318 318 319 321 322 312 307 300 313 307 308 306 303 304 304 304 306 304 299 298 292 288 289 284 287 292 297 295 293 290 295 297 295 296 294 295 296 296
317 316 317 317 317 317 318 318 318 317 316 317 314 300 303 301 307 306 304 305 302 302 301 300 297 292 292 288 283 285 285 288 289 292 292 290 291 296 296 294 295 294 294 295 297
317 317 317 317 318 319 315 306 301 298 303 297 299 299 303 306 307 303 304 302 302 299 292 295 289 288 291 293 292 289 288 287 291 295 292 291 292 294 297 293 295 297 297 296 297
318 318 317 318 318 318 310 301 301 300 294 301 300 302 305 305 300 303 303 297 296 292 293 291 288 293 294 293 292 291 289 289 292 294 292 290 291 294 295 297 295 297 298 299 299
318 317 317 317 317 311 305 303 307 305 294 299 300 298 299 304 299 300 300 296 293 290 291 290 292 297 295 293 291 291 289 289 289 291 290 288 286 289 294 296 297 298 299 300 299
318 318 317 317 310 306 302 306 306 304 284 289 295 299 301 301 294 301 300 297 293 291 291 290 295 294 291 291 293 288 292 291 289 286 284 287 282 286 290 292 294 297 297 298 298
318 318 318 316 305 303 306 306 304 299 277 292 293 302 301 294 294 295 297 295 290 291 290 289 289 289 290 292 292 291 291 290 287 284 284 284 282 284 290 288 291 295 296 299 297
318 318 317 312 307 308 309 306 299 284 276 288 294 293 293 294 293 293 294 295 294 291 291 290 292 291 291 290 291 291 288 287 284 283 279 283 284 285 285 290 290 295 295 297 295
318 317 314 315 308 310 309 302 286 278 290 288 289 293 291 291 291 290 289 287 286 282 282 287 289 292 292 288 289 289 287 279 276 275 278 285 282 288 290 291 293 295 296 297 294
316 317 314 315 313 310 306 293 283 290 289 294 292 291 289 291 291 289 287 285 287 285 284 283 283 288 291 291 288 287 288 281 274 275 281 281 279 285 293 296 293 294 295 292 293
315 314 312 314 313 310 298 286 290 289 295 292 293 290 286 290 290 288 285 286 288 289 285 283 284 288 288 289 292 286 283 289 283 277 275 284 285 289 290 291 291 292 291 291 292
310 310 309 314 313 305 293 293 292 297 296 294 290 292 288 288 285 289 287 290 290 291 294 289 284 287 285 287 287 286 287 282 283 276 272 281 279 285 286 291 293 290 289 290 291
307 302 307 313 311 299 287 290 295 298 297 293 292 290 289 287 288 287 288 290 290 291 292 288 287 285 284 283 284 282 282 283 284 282 279 278 282 287 288 290 291 291 290 290 291
301 292 310 311 296 296 293 294 298 296 297 295 295 292 292 293 291 290 289 291 294 293 288 290 287 282 285 287 287 287 287 288 283 281 279 281 283 291 292 291 291 289 291 292 292
297 297 308 308 291 292 293 294 297 296 296 295 294 295 296 292 288 290 291 296 296 293 290 291 285 280 281 285 282 283 284 287 287 284 282 279 282 292 294 291 291 290 290 292 292
296 289 298 300 300 294 292 292 292 297 295 296 295 296 293 291 293 290 289 293 294 295 297 296 286 284 282 285 286 284 286 286 285 281 282 283 285 290 293 294 295 296 293 293 293
294 290 293 284 291 293 294 292 290 289 295 296 293 293 292 289 290 289 292 292 294 295 293 292 283 285 287 289 288 288 287 287 285 286 281 283 284 288 291 292 294 296 295 294 293
288 287 290 288 289 289 289 288 288 290 291 289 289 292 291 287 289 288 291 291 290 287 290 290 284 286 284 286 286 285 287 287 287 286 286 287 286 293 294 295 294 295 295 294 295
290 293 288 284 282 282 283 286 287 287 288 291 287 285 284 287 291 290 290 288 289 290 289 288 284 284 280 285 285 280 285 286 287 289 288 283 288 292 292 293 294 295 295 295 295

GFSSW_sfc_thetae_039.txt.gz
Theta_e
321 321 321 321 321 322 322 323 323 323 323 324 324 324 324 324 323 312 303 311 314 330 318 307 306 304 304 302 302 297 290 287 289 290 293 293 293 295 296 294 295 298 295 296 297
319 320 320 320 320 320 321 321 322 322 322 322 323 324 323 323 311 305 317 329 332 330 307 304 301 302 299 300 300 295 287 289 293 293 292 294 293 294 295 292 293 296 295 295 296
319 319 319 319 319 319 320 320 320 321 321 321 322 323 323 320 301 299 329 332 334 324 307 304 303 302 296 298 298 295 292 293 296 298 296 295 293 295 293 292 295 296 297 294 294
319 318 318 318 318 319 319 320 320 320 320 320 321 323 323 311 290 302 331 333 332 310 305 302 300 297 295 295 298 293 297 297 298 298 296 294 295 294 294 300 298 298 296 294 293
319 318 318 317 318 319 319 319 319 319 320 320 321 323 312 297 299 313 328 328 312 307 303 300 297 297 294 294 295 294 296 298 298 298 297 296 295 295 295 297 298 297 296 295 295
318 318 317 318 318 319 319 319 319 319 319 319 321 322 302 292 304 315 313 309 306 304 301 300 297 299 296 296 294 294 296 296 297 296 296 296 296 294 300 296 297 296 296 295 295
318 318 317 318 319 319 320 320 320 320 319 320 320 317 302 298 306 310 307 304 305 304 300 301 301 298 295 294 297 295 292 293 294 295 295 295 293 291 300 295 296 295 295 295 295
318 317 317 318 319 319 320 320 321 320 320 320 320 309 295 305 304 304 304 301 303 304 303 302 302 299 296 297 293 289 289 286 290 293 293 295 289 296 295 295 295 295 293 294 296
318 317 317 318 319 319 320 320 319 319 319 321 310 302 296 309 302 304 302 301 301 302 301 305 301 295 294 288 286 284 282 283 287 293 292 291 288 295 294 292 294 294 294 293 294
318 318 318 318 319 319 320 319 318 315 316 316 310 296 299 299 303 303 301 302 299 299 298 296 294 289 288 286 281 282 281 283 284 289 289 288 288 294 296 293 294 295 295 294 295
318 318 319 319 319 320 313 302 298 295 299 296 298 297 298 302 304 300 302 301 299 295 289 292 287 285 289 290 291 284 283 283 287 290 287 289 290 292 296 295 293 295 297 298 299
319 319 319 319 319 319 305 300 298 297 292 299 297 298 300 302 297 299 301 295 294 289 290 288 284 291 290 289 288 287 286 286 290 292 287 288 288 292 293 295 297 298 298 297 299
319 319 318 319 318 310 301 300 305 303 292 295 298 295 296 300 295 296 299 294 291 289 289 288 290 293 290 287 287 286 284 286 286 288 287 286 287 289 291 294 297 298 299 299 299
319 319 319 318 310 305 301 304 304 300 286 289 291 294 297 298 292 297 297 295 290 289 288 287 291 290 288 287 288 285 289 288 287 283 282 284 280 284 289 289 291 294 296 297 297
319 319 319 318 307 306 306 305 302 294 282 292 291 299 298 292 291 293 295 293 288 288 288 287 287 286 286 289 289 287 289 287 284 281 281 282 279 283 286 285 290 294 296 297 298
319 319 318 313 309 310 309 305 298 289 283 289 291 291 290 291 291 291 292 293 292 288 288 289 289 289 289 289 289 288 285 284 281 280 277 282 281 286 284 287 288 291 292 294 296
315 318 315 314 309 309 309 305 293 286 293 288 287 290 288 287 289 288 288 287 286 282 281 283 286 288 290 286 287 286 283 278 275 274 277 281 281 287 287 288 290 292 293 295 295
312 315 314 315 311 310 309 300 287 292 289 293 290 290 288 290 290 289 285 284 286 284 281 281 283 286 288 289 286 284 285 279 273 276 280 280 277 286 290 291 292 291 292 291 292
312 314 313 314 312 312 304 290 291 295 296 293 295 291 290 288 290 287 284 284 287 287 285 281 282 286 286 287 290 283 282 288 281 279 277 279 284 288 294 294 289 289 290 289 290
304 305 306 313 313 308 297 293 293 296 294 293 289 291 285 285 285 285 284 287 287 288 288 287 283 285 284 285 285 286 286 280 280 274 273 279 281 282 289 291 292 290 290 290 289
301 295 301 313 311 300 290 292 296 299 299 295 293 292 292 290 291 289 290 291 289 289 288 288 286 286 286 284 286 283 281 282 283 282 278 277 282 288 292 294 292 291 289 289 289
297 290 304 312 296 296 292 295 296 296 297 297 296 295 293 293 291 290 290 293 294 291 288 289 287 283 286 291 287 285 286 286 281 280 282 282 282 292 294 295 295 292 292 291 291
292 291 305 307 288 289 293 293 295 294 294 294 294 295 294 291 288 290 291 295 295 294 291 291 285 281 282 285 286 284 288 287 287 285 281 278 281 294 294 294 296 292 292 291 291
292 285 295 298 298 293 290 290 290 296 295 296 294 295 292 290 292 289 289 293 292 292 296 295 288 285 280 283 286 282 284 286 286 281 281 282 284 289 291 292 295 295 292 293 292
290 287 288 286 288 290 290 290 288 287 293 293 291 291 290 286 287 287 288 285 288 290 289 289 282 285 285 286 286 285 285 285 284 285 282 284 285 289 291 292 293 294 295 293 288
284 285 288 285 285 285 287 287 287 289 289 288 288 283 284 282 283 281 279 281 280 283 281 284 278 281 278 281 283 281 284 285 286 286 285 286 286 289 292 287 284 288 288 286 286
285 288 286 283 282 280 281 283 282 283 284 286 282 280 279 281 282 283 283 282 281 279 277 276 273 273 271 277 277 274 279 282 283 286 282 279 279 280 281 281 282 283 284 284 285

GFSSW_sfc_thetae_042.txt.gz
Theta_e
320 321 321 321 320 321 321 322 322 322 322 323 323 324 324 324 323 311 301 311 313 330 318 306 305 303 303 301 300 296 290 286 288 288 292 293 292 294 294 297 295 297 295 295 296
320 320 320 320 320 320 321 321 321 321 321 322 322 323 323 323 310 304 316 326 332 327 305 303 300 301 298 298 299 294 287 289 292 291 292 293 293 294 296 293 293 295 296 295 296
319 319 319 319 319 320 320 320 320 320 321 321 321 322 323 319 298 297 327 329 334 322 306 302 302 300 295 297 297 294 291 291 294 295 295 294 293 295 293 292 295 295 297 294 294
319 318 318 318 319 320 320 321 320 320 320 320 321 322 322 309 291 300 331 332 332 307 304 301 299 296 294 294 297 293 296 295 297 297 295 294 294 293 294 299 299 298 297 294 294
319 319 318 318 318 320 320 321 321 320 320 320 320 322 310 295 298 314 329 328 309 305 302 299 296 296 293 293 293 294 295 297 297 297 296 296 296 294 294 298 297 296 296 295 294
319 318 318 318 319 320 320 321 321 321 320 320 320 321 300 292 304 317 315 307 305 302 300 299 297 298 294 294 294 292 294 295 295 296 296 295 297 294 297 295 297 295 295 294 294
319 318 318 318 319 320 321 321 321 321 320 320 319 316 299 297 306 310 308 304 304 302 299 299 299 298 295 292 295 293 291 291 292 292 293 293 292 290 298 295 296 294 294 294 294
318 318 318 318 319 320 321 321 321 321 320 320 320 308 294 303 304 304 303 300 302 302 300 300 300 297 294 294 292 287 287 284 289 291 292 293 287 295 294 291 294 293 293 292 294
318 318 318 319 319 319 320 321 318 321 320 320 308 298 294 309 301 303 301 299 300 300 300 304 299 294 293 288 285 284 281 282 286 292 290 290 286 293 293 291 293 295 296 295 295
318 318 318 319 319 320 320 317 317 316 316 315 308 295 297 297 301 301 300 301 299 298 297 296 292 289 287 285 280 282 280 282 282 288 286 286 287 292 295 291 295 296 297 297 299
319 319 319 319 320 321 310 301 299 297 298 296 297 294 297 300 302 299 300 300 298 294 289 290 286 285 289 288 286 283 282 281 285 290 286 288 288 291 293 294 294 295 296 297 298
319 319 319 319 320 319 304 298 295 297 292 298 297 297 299 300 296 298 300 295 293 289 289 287 284 289 289 288 287 286 284 284 288 290 286 287 288 292 293 293 295 295 296 297 298
320 319 319 319 319 309 301 299 304 302 291 295 297 295 296 298 293 295 298 293 290 288 287 286 288 291 289 286 286 284 283 285 284 286 286 284 285 286 289 292 295 296 297 297 297
320 319 319 319 311 305 301 303 303 298 288 291 290 294 296 296 290 296 296 294 289 288 287 286 289 289 286 286 287 283 287 287 285 282 279 285 280 282 289 289 290 293 294 295 295
319 319 320 319 307 306 305 303 301 294 281 292 290 298 296 291 292 292 294 292 288 288 287 286 286 286 285 287 288 286 287 285 283 281 280 279 278 282 285 285 289 291 292 294 293
318 319 318 313 309 310 308 305 299 291 284 290 290 289 289 290 290 291 291 293 291 287 286 288 288 288 288 288 289 287 285 284 281 280 276 281 280 286 283 285 286 289 291 293 293
312 314 316 315 310 310 309 308 294 286 294 288 286 289 286 286 288 288 287 286 285 282 281 283 286 288 288 285 285 286 282 277 275 274 277 280 280 287 287 289 290 292 292 293 292
311 314 315 316 314 311 310 301 286 291 289 292 289 288 287 290 290 288 284 283 286 284 280 281 284 286 287 288 286 283 284 279 273 276 281 279 277 287 290 290 290 291 291 290 290
311 313 312 313 312 312 304 290 289 293 295 293 292 289 287 288 290 288 284 284 287 289 286 281 281 285 286 286 287 282 281 286 281 280 276 282 283 289 294 294 292 289 288 290 289
303 303 304 313 313 309 298 293 293 297 294 293 290 292 284 285 285 284 286 286 286 288 289 287 283 285 285 284 285 285 286 279 278 273 274 278 282 283 288 290 292 289 290 290 290
300 294 300 311 311 301 290 290 294 299 298 295 293 292 292 290 289 288 290 289 287 288 288 287 287 287 285 282 285 282 281 281 282 282 277 276 280 290 291 292 291 290 289 290 291
297 288 303 312 295 295 289 292 296 295 296 296 296 294 292 292 290 290 289 293 293 293 290 291 288 284 285 291 287 286 286 286 281 280 282 281 281 293 293 294 294 294 294 291 292
292 291 301 306 287 289 291 291 294 293 293 293 292 293 293 291 287 290 291 294 294 291 290 292 285 281 282 284 285 283 286 286 287 286 281 278 280 292 292 292 293 293 291 289 288
291 283 292 297 295 291 288 288 288 294 293 294 293 294 291 289 292 288 288 292 290 292 294 293 286 284 279 283 285 283 285 285 283 278 280 281 283 287 290 285 285 285 288 286 285
286 284 287 284 286 289 290 288 286 285 291 291 290 290 289 285 286 286 289 285 286 289 286 287 281 284 283 281 281 281 280 280 278 279 276 279 280 284 281 280 281 284 284 284 284
282 284 287 284 283 282 284 284 285 287 288 287 286 283 284 282 281 278 278 280 279 281 278 282 274 277 274 278 278 275 276 276 277 278 278 281 281 280 280 281 280 282 281 280 281
284 286 286 280 281 280 279 281 279 282 283 284 281 279 278 281 282 282 283 282 281 279 276 276 273 265 269 275 272 267 273 275 276 277 275 274 274 278 278 278 278 281 281 280 280

GFSSW_sfc_thetae_045.txt.gz
Theta_e
321 320 320 320 320 321 321 322 322 322 322 322 323 323 324 324 322 311 301 310 313 331 318 307 306 304 305 304 303 300 293 289 291 291 294 297 296 298 299 299 299 300 300 302 300
320 320 320 320 320 321 321 321 321 321 321 321 321 322 323 323 310 303 315 324 332 326 305 303 301 302 300 301 301 297 290 291 294 293 295 296 296 297 297 297 297 299 300 298 300
319 319 319 319 320 321 321 322 321 321 320 320 321 322 322 318 298 298 327 327 333 319 305 303 302 302 298 300 299 296 293 293 295 294 296 296 295 298 296 295 297 298 300 298 298
319 319 319 319 319 320 321 322 322 321 321 320 320 321 322 308 291 298 331 330 331 307 304 302 301 298 296 295 298 294 296 295 298 297 297 296 297 295 296 301 302 300 301 299 297
319 319 319 319 319 320 321 322 322 322 321 321 320 321 308 294 298 317 330 330 307 305 302 300 298 297 294 294 295 295 295 297 297 297 297 296 297 296 295 300 299 299 297 298 297
319 318 318 319 320 320 321 322 322 322 322 321 320 320 297 291 304 318 315 308 305 302 300 300 298 298 295 294 294 294 295 295 295 296 296 295 297 295 297 298 298 297 298 297 297
319 318 318 319 320 321 321 322 322 322 321 321 320 314 297 295 307 311 308 304 304 302 299 299 299 298 296 293 296 294 292 292 292 293 293 294 293 291 298 295 296 296 296 296 297
319 318 318 319 320 321 321 322 321 321 320 320 320 306 293 303 306 305 302 301 302 302 301 300 301 298 296 296 293 289 288 286 291 292 292 294 288 294 295 293 295 296 295 295 297
318 318 318 319 320 320 321 321 318 322 320 320 306 296 293 309 301 302 301 299 300 300 301 302 300 295 294 289 286 286 283 283 287 292 291 292 288 293 293 293 294 296 298 299 299
318 318 319 319 320 320 320 317 316 315 316 316 308 293 296 296 301 301 300 301 298 298 297 296 292 289 287 286 281 283 282 283 283 290 287 287 288 293 295 292 294 296 297 298 298
319 319 319 320 320 321 311 301 301 299 297 295 296 293 296 299 302 299 300 300 297 294 290 291 287 285 289 288 287 284 283 282 285 290 286 289 289 290 293 293 293 295 296 297 297
319 319 320 320 320 320 303 297 295 296 292 298 298 297 298 299 295 297 300 295 293 289 289 287 284 290 289 288 287 286 284 284 287 289 286 287 288 292 293 293 295 295 295 296 297
320 319 319 320 319 309 300 298 303 300 291 296 297 295 297 298 294 295 298 294 290 287 287 286 289 290 289 287 286 284 283 285 284 286 286 284 286 287 291 292 294 294 296 296 296
320 320 319 320 312 305 301 303 303 299 288 291 290 293 296 294 289 295 295 293 289 288 287 286 289 288 286 286 286 283 287 287 285 283 280 286 280 285 289 290 291 294 294 294 295
320 319 320 320 311 309 306 303 300 296 281 292 289 297 295 291 290 291 294 292 287 287 287 286 286 285 286 287 288 286 287 285 284 282 280 280 279 284 286 287 290 291 293 294 295
315 319 318 314 312 311 307 305 301 291 284 290 289 289 289 290 289 291 291 293 290 287 286 287 288 288 288 287 288 288 285 283 281 280 277 281 281 287 284 287 288 291 293 294 296
312 314 316 316 311 310 310 307 294 287 295 288 285 288 286 286 287 287 287 286 286 283 282 284 285 288 288 285 285 286 283 278 276 275 279 281 280 287 288 289 292 293 292 294 293
310 312 314 316 312 312 311 300 285 292 292 294 291 289 288 290 290 287 284 283 285 286 281 281 284 285 288 288 287 284 285 281 275 277 281 280 278 287 291 290 291 291 291 291 292
311 312 311 314 312 312 304 288 287 292 295 293 294 290 287 287 290 287 284 284 287 288 286 282 282 284 286 286 288 282 281 286 282 279 277 283 284 290 292 291 290 290 290 292 292
303 301 303 312 313 309 298 292 294 297 295 294 290 291 284 288 286 286 286 286 286 287 289 287 283 286 285 285 284 285 285 280 278 275 274 280 281 283 288 288 290 289 290 290 289
300 294 300 311 311 301 289 289 294 298 299 295 293 292 291 289 290 288 287 289 288 287 287 288 286 286 286 284 285 285 281 282 282 281 277 276 280 290 289 290 288 286 287 287 287
296 287 301 311 294 293 288 291 295 294 295 294 294 293 291 290 290 289 289 291 292 292 289 291 289 283 283 288 288 286 285 285 281 279 281 281 281 292 291 291 290 287 287 286 286
293 290 300 306 286 288 290 291 292 291 291 292 291 292 292 288 285 288 289 292 293 293 291 291 285 280 280 282 284 284 286 287 286 284 279 277 280 289 288 289 288 283 284 284 284
288 281 289 297 294 290 287 287 288 293 292 293 292 292 290 288 291 288 289 292 291 292 294 293 285 283 279 283 285 283 283 282 281 276 278 278 279 283 285 282 281 284 283 282 281
285 282 286 284 285 288 289 287 285 284 290 289 288 288 286 284 285 285 286 284 286 286 285 286 281 283 284 280 280 278 278 278 276 277 274 276 276 279 278 279 279 283 282 282 282
282 282 287 283 285 284 285 282 282 283 284 284 284 282 283 282 281 278 279 280 279 281 280 282 275 276 273 278 278 276 277 276 276 276 275 275 274 278 280 280 278 279 280 281 281
283 285 282 279 281 279 279 281 279 282 281 283 280 279 278 281 283 283 283 282 282 279 277 278 275 270 270 275 273 266 271 275 275 274 274 272 273 276 277 278 278 278 279 281 279

GFSSW_sfc_thetae_051.txt.gz
Theta_e
320 321 321 322 322 323 323 323 323 322 322 322 323 323 323 324 323 320 310 317 318 330 324 315 314 314 314 313 313 313 303 300 301 301 301 307 304 308 310 307 309 310 310 312 313
320 320 321 321 321 322 323 323 323 323 323 322 322 322 322 323 317 313 322 325 333 327 315 312 310 311 310 310 311 307 302 301 305 305 303 304 305 305 305 305 306 308 312 313 312
320 319 320 320 321 322 323 323 324 324 323 323 322 322 321 322 311 309 326 329 333 324 315 314 312 310 307 309 308 307 301 305 305 306 305 304 303 306 304 302 306 306 309 311 312
319 319 319 320 321 322 323 324 324 324 323 323 322 322 322 318 299 311 331 333 331 317 313 311 309 306 304 303 307 302 305 305 306 306 304 303 305 304 305 305 309 310 310 310 310
319 319 319 320 320 322 323 324 324 324 323 323 322 321 318 306 305 324 328 330 317 313 310 309 306 306 302 304 304 303 304 305 306 306 305 305 303 303 304 308 310 310 309 309 309
319 319 319 320 321 322 323 323 324 323 323 322 322 320 311 302 313 322 324 320 314 312 310 310 307 308 304 303 302 304 303 303 304 303 304 302 303 304 305 308 307 307 307 308 309
320 319 319 319 321 322 323 323 323 322 323 321 322 318 306 306 316 320 319 315 314 312 309 311 310 306 306 302 306 303 298 301 302 303 302 302 299 299 306 307 306 306 307 309 309
320 319 319 319 321 322 322 323 322 322 321 321 321 315 305 310 316 314 313 311 313 312 310 310 310 307 304 306 302 299 299 295 302 301 301 300 295 303 306 304 304 306 307 308 309
319 318 319 320 320 321 322 322 319 321 320 320 316 309 304 310 307 310 311 307 309 309 309 308 308 304 303 298 296 298 293 296 298 304 299 299 296 303 305 304 303 304 305 306 307
319 319 319 320 320 321 322 320 318 317 319 318 312 302 305 303 307 307 309 309 305 306 304 304 303 299 298 296 290 294 296 297 297 301 300 298 297 301 303 303 302 303 305 306 306
319 319 320 320 321 322 319 317 312 310 308 308 306 305 305 307 309 306 307 305 306 303 297 301 296 294 297 298 297 297 295 294 298 301 299 297 297 299 302 303 302 303 304 305 305
319 320 320 321 321 322 316 312 306 305 304 312 310 309 308 306 304 304 307 301 300 297 300 296 293 299 301 299 296 296 294 294 298 300 296 296 295 299 301 302 303 303 303 304 305
319 319 320 321 321 321 313 308 311 309 303 308 306 305 305 305 305 306 304 302 299 298 297 295 299 300 297 297 295 295 294 294 293 296 297 296 294 299 302 304 303 303 303 303 304
319 319 320 321 318 320 312 311 312 309 300 302 300 301 301 302 299 302 303 302 299 297 300 297 299 296 295 294 296 291 297 295 294 291 289 296 287 295 300 301 302 302 303 303 302
319 319 320 320 316 316 308 307 307 306 288 298 297 306 302 297 298 298 302 301 297 297 296 296 294 293 293 294 296 293 294 293 293 291 291 292 288 294 299 297 298 300 298 299 299
318 319 319 317 315 312 308 306 305 294 286 296 297 297 297 297 296 298 298 301 299 296 296 295 296 295 296 296 295 295 293 294 294 292 286 293 291 292 294 296 297 297 297 297 297
313 316 317 318 313 311 309 310 294 288 300 294 293 295 295 294 295 296 296 294 293 290 292 296 294 296 296 292 294 292 291 286 286 286 285 295 291 293 298 300 297 296 295 296 297
310 315 315 317 312 312 314 300 286 293 294 301 298 296 293 298 298 298 296 294 298 294 292 289 288 293 296 294 294 293 293 287 280 283 287 292 286 291 299 298 297 297 297 296 295
312 313 312 314 315 317 308 291 291 296 300 298 298 294 294 297 296 296 296 295 297 297 289 290 290 294 295 296 295 293 288 293 286 287 284 287 291 296 300 296 296 295 295 294 293
306 303 303 315 314 310 299 292 296 299 301 299 293 295 291 293 293 294 294 296 294 295 296 294 287 296 295 294 295 291 292 286 287 278 278 284 287 288 293 293 293 292 291 291 291
306 300 306 315 313 303 290 293 297 300 301 296 295 294 294 292 294 292 292 296 298 297 295 294 291 290 294 291 290 290 289 289 288 286 280 279 284 294 293 292 290 289 290 289 289
303 293 308 314 299 299 293 296 295 296 299 298 298 296 293 293 291 291 291 294 298 297 292 296 291 286 288 294 295 293 290 290 283 282 285 283 283 296 295 290 289 288 289 288 288
296 297 307 307 290 292 293 292 294 292 292 293 292 294 294 290 287 290 291 296 296 295 292 293 288 281 284 288 292 289 290 289 288 287 282 280 283 294 294 292 288 286 287 287 286
296 290 297 298 300 293 291 290 290 296 293 293 291 293 290 288 290 287 288 292 293 292 290 292 286 284 280 284 286 283 285 286 285 280 281 281 283 287 289 287 286 285 285 284 284
294 289 293 288 290 292 293 290 288 288 293 293 290 290 289 285 287 286 289 288 289 287 288 288 281 284 285 285 283 281 281 282 280 282 277 280 281 284 286 283 284 285 284 283 282
289 288 291 290 292 290 290 288 286 288 289 287 287 289 287 284 287 283 285 285 285 286 285 284 280 281 277 281 281 279 281 281 281 280 280 281 280 287 283 282 282 281 281 281 282
292 292 291 287 287 287 288 288 286 289 286 287 287 286 284 286 288 288 287 286 286 283 282 281 280 277 274 279 277 272 276 278 279 282 281 276 279 280 279 279 279 280 281 281 282

GFSSW_sfc_thetae_054.txt.gz
Theta_e
321 321 322 322 323 323 324 325 324 324 324 323 323 323 323 324 323 321 312 319 320 330 327 314 313 312 313 312 312 310 298 294 297 297 297 302 299 301 303 299 301 304 302 305 310
320 320 321 322 322 323 324 325 325 325 324 324 324 323 323 322 316 311 322 328 332 330 314 310 308 310 306 308 308 302 297 298 301 300 298 300 299 300 298 299 300 301 305 307 308
320 320 320 321 321 323 324 325 325 325 325 324 324 323 323 320 312 311 327 330 332 326 316 313 311 309 304 306 305 303 297 301 301 302 302 300 299 301 298 297 300 300 302 303 305
320 319 320 320 321 322 324 324 325 325 324 324 323 323 322 318 298 316 330 331 331 318 312 310 308 304 301 300 305 298 302 303 304 303 302 299 302 299 300 301 304 304 304 304 303
320 320 320 320 321 322 323 324 325 325 323 323 323 323 318 308 307 324 328 330 321 314 309 307 304 303 299 300 301 298 301 303 303 302 301 303 300 299 299 303 305 305 305 303 303
320 319 319 320 321 322 323 324 324 324 323 323 323 321 313 301 315 323 323 322 313 310 308 308 305 305 301 300 298 300 300 300 301 301 301 299 299 299 300 302 302 303 302 302 302
320 320 319 320 321 322 323 324 324 323 322 321 321 318 309 306 316 320 318 315 313 311 308 309 308 304 303 299 301 300 295 298 299 299 298 299 295 296 301 302 301 301 301 302 303
320 319 319 319 320 322 322 323 323 321 321 321 322 315 304 311 314 314 314 311 313 312 310 309 309 305 302 303 300 295 294 289 297 298 297 296 290 299 301 300 300 301 300 301 302
319 319 319 320 320 321 322 323 321 321 320 320 317 312 303 312 308 310 311 307 309 309 309 308 308 302 301 294 291 293 287 290 294 300 296 294 291 298 301 299 299 300 299 300 301
319 319 319 320 320 321 322 322 319 319 318 318 313 303 305 303 307 308 308 309 306 305 304 302 300 295 294 291 284 289 288 291 291 296 297 293 293 297 299 298 298 297 299 299 299
319 319 320 320 321 322 321 317 311 307 307 306 307 304 305 307 309 306 307 305 305 302 295 298 292 289 293 294 294 292 291 290 294 298 295 294 294 295 299 299 298 298 298 297 300
319 319 320 320 322 322 320 312 306 305 301 311 311 310 311 307 303 304 306 299 299 294 297 293 289 296 298 298 295 293 290 290 294 297 294 292 292 296 298 298 297 296 296 298 297
319 319 319 320 321 320 314 308 312 310 300 307 308 306 306 306 304 305 303 301 297 295 295 292 296 299 297 294 293 292 290 291 291 293 293 290 289 293 298 298 298 298 298 297 296
320 319 320 320 317 320 311 312 312 310 296 300 301 301 302 303 300 302 304 301 299 295 297 296 298 295 294 293 294 289 294 292 291 287 284 291 281 290 295 295 295 296 294 294 294
319 319 320 320 316 315 307 308 308 305 286 298 297 306 302 298 298 298 301 299 295 296 293 294 292 291 291 292 294 291 292 290 289 286 285 287 282 288 293 291 291 292 293 293 293
319 319 319 318 316 312 306 307 307 294 285 295 297 297 296 297 296 298 298 299 297 294 294 293 293 292 293 294 293 293 290 290 289 286 280 287 286 286 288 290 290 292 292 293 293
315 317 317 318 312 311 308 310 294 288 299 293 293 295 295 293 294 295 294 291 289 286 287 292 292 293 294 289 291 289 286 281 280 278 279 289 284 288 293 295 292 292 292 293 293
314 316 315 317 314 311 311 299 285 293 294 301 299 298 294 297 297 297 293 291 295 293 288 286 284 291 293 291 290 289 289 282 275 277 281 286 281 288 293 294 294 293 292 291 290
314 311 312 313 314 314 304 289 290 295 299 298 298 293 292 297 296 295 293 293 295 295 288 286 286 293 293 293 293 289 286 291 283 277 276 282 287 292 294 292 292 291 290 288 287
307 306 306 314 315 310 299 291 295 300 302 301 291 293 289 292 292 291 291 294 294 294 293 291 285 293 291 292 291 290 291 283 283 275 270 279 279 283 289 288 289 288 287 287 287
306 300 305 314 312 302 290 292 297 300 301 296 295 292 292 291 292 290 291 295 297 294 294 292 289 287 291 288 288 287 285 286 287 284 278 276 279 289 287 287 285 286 287 286 285
303 292 308 313 298 298 293 296 297 296 299 297 298 295 293 293 290 290 290 293 296 295 290 294 290 281 285 291 292 290 287 287 282 280 282 281 281 292 288 287 287 286 286 285 285
296 296 307 307 291 292 295 293 294 293 293 293 293 294 294 290 287 289 290 294 296 294 290 291 284 275 276 282 289 286 287 288 286 284 279 277 280 292 289 286 287 285 284 284 281
296 289 296 299 298 292 292 291 289 295 293 293 291 293 289 287 289 287 288 291 291 290 292 293 285 279 275 279 285 281 283 284 283 277 277 278 280 286 287 286 284 283 283 282 281
294 289 293 287 290 292 292 291 288 288 293 293 290 289 288 284 285 285 288 287 288 288 288 288 279 283 284 284 282 280 280 280 278 279 274 277 278 282 284 284 280 280 280 280 280
289 287 290 289 292 291 291 287 287 288 289 288 287 288 289 284 284 279 283 283 282 283 283 283 273 277 269 279 279 277 279 279 279 280 279 279 278 283 279 279 277 278 278 279 279
291 292 289 287 287 286 287 288 287 289 287 288 288 286 284 285 287 287 286 285 284 282 280 279 274 268 265 276 273 267 274 276 278 279 278 274 275 277 277 277 276 276 278 278 279

GFSSW_sfc_thetae_057.txt.gz
Theta_e
321 321 322 323 323 324 325 325 325 325 325 325 324 324 323 323 322 320 311 316 318 332 325 310 309 306 307 305 306 303 292 289 291 292 293 298 297 299 300 297 297 301 300 302 305
320 320 321 321 322 323 324 325 325 325 325 324 324 324 323 323 316 309 321 331 332 331 310 306 303 304 300 302 303 297 291 293 296 294 294 296 295 295 295 296 295 298 300 304 306
320 320 320 321 321 323 324 325 325 325 325 325 324 324 323 320 307 308 326 330 331 328 312 308 307 304 298 299 300 298 293 297 299 300 298 297 297 298 295 295 296 298 299 300 303
320 320 320 320 321 322 324 325 325 325 325 324 323 324 323 315 292 314 328 330 330 316 310 306 303 299 296 295 300 294 299 300 301 300 299 298 298 297 297 299 300 300 301 300 301
320 319 320 320 321 322 323 324 325 325 324 323 323 323 314 303 303 321 327 329 319 311 305 303 299 298 294 295 296 294 296 299 300 299 298 299 297 297 297 302 302 301 301 300 300
320 319 319 319 320 321 323 324 324 325 323 323 323 321 307 297 314 322 321 318 311 307 304 303 301 301 297 296 293 295 296 296 298 298 298 297 295 296 298 299 299 300 299 298 299
320 319 319 319 320 322 323 323 324 324 322 322 321 317 306 303 313 318 318 311 310 308 304 305 304 300 298 295 298 296 293 295 296 296 296 297 293 294 299 298 299 298 297 299 300
320 319 319 319 320 321 322 323 324 323 321 321 322 312 300 308 309 312 311 308 309 309 307 306 305 302 299 299 297 293 290 287 295 295 296 294 288 296 298 297 299 297 296 298 298
319 319 319 319 320 320 322 322 322 320 321 320 312 307 299 311 305 307 306 304 306 305 304 306 303 298 297 291 288 289 284 287 291 296 294 291 288 296 298 296 296 294 296 297 298
319 319 319 319 320 321 322 323 319 318 317 318 314 298 302 301 305 306 304 306 303 302 300 299 296 291 290 288 282 285 284 286 286 293 292 291 290 294 297 297 294 293 295 296 296
319 319 319 319 320 322 320 312 307 304 304 303 302 300 301 304 306 303 305 303 302 298 291 294 288 287 289 290 291 288 287 286 290 295 291 291 291 293 297 296 293 295 295 294 294
319 319 319 320 321 322 317 308 303 304 300 307 308 305 306 306 301 302 304 297 297 292 294 290 287 293 294 294 292 290 288 287 290 294 292 290 289 294 296 295 293 293 292 293 293
319 319 319 319 320 317 311 305 308 305 297 303 306 305 304 305 301 300 301 298 294 291 292 289 292 296 295 292 291 289 287 287 288 290 291 288 287 290 293 293 293 293 293 293 292
319 319 319 319 315 314 306 308 308 305 292 298 300 300 300 301 297 300 301 298 296 292 293 292 296 295 292 291 292 287 292 291 289 285 282 288 279 288 290 289 290 290 290 290 291
319 319 319 320 315 313 307 306 305 304 286 296 296 304 299 296 296 296 299 297 293 293 291 292 290 289 289 291 293 289 291 288 287 284 283 284 281 285 288 286 287 288 289 290 290
319 319 319 318 317 311 306 308 306 294 285 290 295 295 293 294 294 295 295 296 295 292 292 291 292 291 291 291 291 292 288 288 285 284 279 284 283 284 285 288 287 289 289 290 290
318 318 317 319 312 311 310 310 294 288 297 290 290 293 292 291 291 292 291 288 288 284 284 290 289 291 292 287 290 288 285 280 278 277 278 286 282 286 288 290 289 288 288 289 289
315 317 316 318 315 312 311 299 286 293 294 298 296 295 293 295 295 294 291 288 291 289 286 284 283 289 292 290 289 287 288 282 273 276 279 285 280 286 289 290 290 289 288 287 285
315 312 313 313 314 314 302 288 289 294 299 296 297 293 292 295 295 294 291 290 292 293 288 284 284 290 291 292 293 288 285 290 283 273 274 280 285 288 290 288 287 286 286 284 284
307 306 306 314 315 311 297 291 292 299 301 300 291 294 289 292 291 291 289 292 292 292 292 290 284 290 290 291 291 290 290 282 281 271 267 277 278 281 285 285 286 285 284 284 284
305 300 305 315 313 302 291 293 297 300 301 298 293 292 291 291 291 289 289 293 292 291 293 291 287 285 288 286 286 286 284 285 285 282 275 272 277 286 287 285 284 285 286 284 284
301 292 306 313 297 298 291 294 298 297 299 298 297 296 292 293 290 287 288 292 294 294 289 291 290 282 285 290 290 288 285 285 279 278 280 281 281 289 286 286 286 285 286 284 285
295 294 304 307 292 293 294 293 297 295 295 295 294 296 295 291 287 289 289 292 293 292 290 291 285 271 274 283 287 285 286 287 285 283 277 277 279 287 287 286 285 284 284 282 281
294 287 295 298 299 293 292 291 290 295 293 293 292 293 289 287 289 286 287 290 290 290 294 292 283 277 274 278 283 279 283 283 282 276 275 277 279 284 284 283 281 280 279 279 279
293 289 292 286 291 293 291 291 290 288 292 292 289 289 288 284 284 284 287 285 286 290 287 287 278 280 280 283 281 280 280 279 277 278 272 276 276 279 280 279 277 277 278 278 278
288 286 289 287 290 291 291 287 287 289 290 288 287 287 288 284 284 280 284 283 283 283 283 282 274 276 271 279 279 276 278 278 278 278 277 278 277 281 276 276 275 276 276 277 277
290 290 287 286 285 287 288 288 287 288 286 288 289 286 284 284 286 285 284 283 284 281 280 278 273 268 264 274 271 266 273 276 276 277 276 273 277 275 276 276 276 275 276 277 277

GFSSW_sfc_thetae_060.txt.gz
Theta_e
321 321 322 322 323 324 325 325 326 325 325 325 324 324 324 324 321 317 304 314 317 331 324 308 306 305 305 303 304 300 290 287 289 290 292 295 294 296 298 295 296 298 297 299 303
320 320 321 321 322 323 324 325 325 325 325 325 324 324 324 323 313 308 319 330 334 331 308 304 301 303 299 300 301 295 288 290 294 293 293 295 294 295 294 295 293 296 299 302 304
320 320 320 321 321 322 323 325 325 325 325 325 323 323 323 320 303 304 326 329 331 327 309 306 305 303 297 297 298 296 291 295 297 298 298 296 295 296 293 294 295 297 296 298 302
320 319 319 320 321 322 323 324 325 325 325 324 323 323 322 313 291 310 328 329 330 314 308 304 301 297 294 293 297 293 298 298 300 299 297 295 297 296 295 298 299 299 298 298 298
320 319 319 320 320 321 323 324 325 325 325 324 324 323 313 300 302 318 326 327 313 309 303 301 298 297 293 293 294 293 294 297 298 298 296 297 295 295 296 299 299 299 298 297 297
320 319 319 319 320 321 322 323 324 325 324 323 324 321 304 296 314 320 318 315 308 305 302 302 299 300 295 294 293 293 294 295 297 297 296 295 293 295 297 296 298 298 298 296 297
320 319 319 319 320 321 322 323 324 324 324 322 322 317 305 302 313 318 316 310 308 305 302 303 302 299 297 294 297 295 292 294 295 294 294 295 291 293 298 297 297 297 295 296 297
320 319 319 319 320 321 322 323 324 323 322 322 322 311 299 307 308 312 311 306 307 307 305 304 304 301 298 298 295 291 288 287 294 294 294 293 289 295 297 294 296 295 293 295 295
319 319 319 319 319 320 321 322 323 323 321 321 311 305 299 311 303 305 305 303 304 303 303 305 302 297 296 290 287 287 283 285 290 294 293 290 288 295 297 294 294 291 293 294 294
319 319 319 319 319 320 322 323 319 318 316 317 314 298 302 299 303 304 302 305 301 300 299 298 294 290 289 287 282 285 283 285 285 290 291 289 289 292 296 295 292 291 291 292 292
319 319 319 319 320 322 319 313 306 304 306 303 301 300 300 303 305 302 303 301 301 297 291 293 288 286 288 290 289 287 285 284 288 293 289 290 289 292 295 293 290 291 291 290 290
319 319 319 319 320 321 316 308 304 304 300 307 305 303 304 304 299 301 303 296 296 291 293 289 286 292 293 291 290 289 286 286 289 292 290 289 289 291 290 290 291 291 290 290 290
319 318 319 319 320 317 312 307 307 305 298 302 305 305 303 305 301 301 301 298 294 291 291 289 292 294 292 290 290 288 286 286 287 289 289 286 286 287 289 290 291 290 290 289 289
319 318 319 319 314 314 307 308 308 305 293 296 299 300 300 302 296 300 301 298 294 291 291 290 294 293 291 290 291 286 291 290 288 284 281 287 279 285 286 286 287 287 286 287 288
319 318 319 320 315 311 308 306 306 304 285 296 296 302 299 298 295 294 298 296 292 292 292 291 290 289 290 291 292 289 290 287 286 283 282 282 279 283 286 284 285 286 287 287 287
319 318 318 317 317 313 306 307 308 295 284 289 294 293 292 292 293 294 294 295 295 291 290 290 291 290 290 290 291 291 287 287 284 282 278 283 282 282 283 285 285 286 287 288 287
318 318 317 319 312 309 311 309 294 287 296 288 289 292 290 289 290 291 289 287 287 284 283 288 289 290 291 287 288 287 284 279 277 276 278 284 280 283 286 288 287 286 286 286 285
318 317 316 318 313 313 311 300 286 293 293 297 294 292 291 294 293 291 288 287 289 287 285 284 282 288 290 289 287 285 286 281 272 275 278 282 279 283 287 288 288 287 285 285 284
316 314 314 314 314 315 304 291 291 295 298 295 295 290 289 294 293 292 289 288 291 290 287 284 283 289 289 290 291 286 283 288 281 269 274 280 281 286 286 284 284 284 284 282 282
308 308 308 314 315 311 298 292 292 298 301 298 290 292 286 290 290 290 289 291 291 291 291 288 282 288 289 290 288 288 289 282 280 270 268 277 278 280 282 282 283 283 282 283 282
306 302 306 314 313 304 290 291 295 300 301 297 295 293 292 291 291 290 289 291 290 290 291 290 286 284 287 286 286 285 283 285 285 281 273 270 277 284 285 285 284 284 284 283 282
301 294 306 312 297 298 290 294 298 297 300 299 298 296 293 293 290 289 288 290 292 292 289 291 287 278 284 287 289 286 285 285 280 277 278 278 279 288 288 286 285 285 286 283 283
295 295 304 306 291 292 295 295 298 295 296 295 295 296 296 292 289 289 290 292 291 291 289 290 283 272 277 281 285 283 284 284 283 280 272 274 277 286 285 285 286 284 284 283 281
294 286 295 298 299 294 292 291 292 297 295 296 295 296 292 289 293 288 286 289 289 290 294 292 281 278 279 278 281 278 282 283 280 273 274 276 277 281 284 282 281 279 280 278 278
294 289 292 285 290 294 293 292 291 288 294 294 290 292 290 285 287 286 286 285 286 289 287 287 277 280 280 282 282 280 280 280 278 278 275 278 278 281 278 279 279 276 277 277 277
290 288 289 288 290 290 291 289 290 291 290 288 288 288 289 287 285 282 284 283 283 283 282 282 273 275 270 279 279 277 279 279 280 280 277 279 277 281 275 275 274 276 276 277 276
291 290 288 287 286 288 287 289 289 290 288 288 290 286 285 287 286 285 284 285 285 283 281 279 274 269 265 272 271 267 271 277 277 277 277 273 277 276 274 275 275 275 276 277 277

GFSSW_sfc_thetae_066.txt.gz
Theta_e
320 320 321 322 322 323 324 325 325 325 325 326 325 324 324 323 321 312 300 309 313 328 321 305 303 302 302 301 300 294 287 283 285 287 289 292 293 294 294 297 293 295 300 296 301
320 320 320 321 321 322 323 324 325 325 325 325 325 323 323 323 309 304 318 327 332 329 304 300 298 300 297 298 298 291 285 286 289 290 294 293 292 292 295 292 292 293 296 299 301
320 320 319 320 320 322 323 324 324 325 325 325 324 324 323 318 299 298 326 327 331 323 305 302 302 299 294 297 297 291 288 289 292 294 294 293 292 293 294 291 292 292 294 296 294
321 320 319 319 320 321 322 323 324 325 325 325 324 324 322 308 290 305 327 328 329 309 304 301 298 294 291 292 294 292 294 294 296 296 294 292 293 293 293 294 295 293 294 294 294
320 320 319 319 320 320 321 323 324 324 324 325 324 323 308 298 301 314 325 322 309 305 301 299 295 294 290 291 291 291 292 294 296 295 294 294 293 293 294 293 294 296 295 293 293
320 319 319 319 320 320 321 322 323 324 324 325 323 321 301 296 311 316 313 307 305 302 300 299 297 297 293 292 291 291 292 293 294 294 293 293 290 292 292 293 294 294 292 292 292
320 320 319 319 320 320 321 322 323 324 324 324 322 314 302 302 312 315 310 305 305 302 299 300 299 296 295 291 293 292 290 291 292 291 292 293 289 291 292 293 292 291 290 291 291
320 320 319 319 320 320 320 321 322 323 323 323 321 307 299 306 310 311 308 304 305 303 303 302 300 298 295 294 292 288 287 285 291 291 291 291 287 292 293 292 290 289 288 289 289
320 319 319 319 319 319 320 321 322 321 322 320 308 302 299 309 303 305 304 302 301 300 301 303 299 294 293 288 285 285 283 283 288 291 290 289 287 292 292 290 289 287 287 288 287
320 319 319 319 319 319 320 322 321 316 315 315 311 299 302 299 301 303 300 302 299 298 297 296 292 288 288 286 282 283 282 283 284 288 289 286 288 291 290 290 287 285 285 286 286
320 319 319 319 319 320 318 313 306 303 305 302 300 300 300 300 302 300 302 300 298 294 290 291 287 285 288 288 287 286 284 283 286 289 287 288 287 287 289 288 286 285 285 285 286
320 320 319 319 320 320 315 307 306 303 298 305 305 302 302 301 296 299 302 296 294 290 290 288 285 290 291 289 288 286 284 284 287 289 288 288 287 286 287 286 286 285 284 285 285
320 319 319 319 319 317 311 310 306 303 297 302 304 302 303 301 297 297 299 296 293 290 289 287 290 293 291 288 287 285 283 283 285 287 287 285 284 284 285 286 286 285 285 285 284
320 319 319 319 314 312 310 315 307 306 292 294 298 301 300 301 296 301 300 297 293 291 291 288 292 291 288 288 288 282 289 288 286 284 281 284 278 281 283 283 284 284 283 283 283
320 319 319 319 312 310 310 310 306 305 284 296 296 300 299 299 295 294 297 296 291 291 291 289 289 288 288 290 290 287 290 288 286 282 279 280 279 280 283 281 282 282 283 283 283
319 319 319 316 316 312 308 307 309 292 283 292 293 291 292 292 292 293 294 296 295 291 289 290 291 290 291 289 291 290 287 285 283 281 276 282 281 280 280 283 282 283 283 284 283
318 318 316 318 310 308 311 309 293 284 294 289 288 290 290 287 288 290 289 288 287 284 284 288 289 289 289 286 286 285 283 278 277 275 276 280 279 282 283 284 285 283 283 283 283
318 317 315 318 311 311 311 300 283 290 290 290 289 288 287 287 287 288 286 285 287 285 284 283 281 288 289 288 286 284 284 279 273 273 277 281 279 283 283 285 287 286 285 283 282
318 316 315 316 313 314 303 291 288 291 295 291 290 284 285 289 287 286 285 285 288 287 285 283 283 287 287 288 289 284 281 286 279 269 273 279 281 282 283 283 283 283 282 281 281
313 311 310 317 314 310 299 293 293 298 297 293 289 288 283 287 288 285 284 289 289 289 289 288 283 286 286 288 287 286 287 281 280 271 269 277 278 281 280 280 281 281 281 281 281
309 304 309 316 313 304 293 294 297 299 300 294 292 290 288 288 288 286 287 289 291 289 291 287 285 282 285 284 283 283 282 283 283 280 273 270 276 282 283 283 282 282 282 281 280
303 297 306 313 299 299 295 296 298 298 301 299 298 296 291 290 289 288 287 289 290 290 287 289 287 279 282 284 285 284 284 284 279 276 277 276 280 283 285 286 284 283 283 282 281
298 297 304 305 293 294 295 295 297 296 297 298 296 298 298 293 289 291 290 290 290 291 289 290 285 276 278 281 282 282 283 283 282 279 277 275 278 284 284 283 284 283 282 282 280
295 290 294 297 297 292 293 293 293 298 297 298 297 297 294 292 294 291 290 288 290 290 293 293 284 279 280 281 283 279 282 283 281 273 278 281 278 280 282 282 282 282 283 281 281
294 289 291 287 291 291 291 291 291 291 296 298 294 295 293 287 289 287 289 288 289 290 289 291 284 280 281 282 282 280 280 281 279 283 279 283 280 282 284 284 284 283 282 280 279
290 288 290 287 289 291 290 285 287 290 292 290 289 291 294 287 288 285 287 287 287 285 288 286 283 283 279 278 277 277 280 280 282 280 279 279 279 282 282 280 279 280 279 278 277
292 291 290 289 287 287 286 288 288 292 290 291 292 289 288 291 291 291 292 291 290 285 284 282 279 279 278 273 275 275 278 280 281 281 282 278 283 278 278 279 279 279 277 278 277

GFSSW_sfc_thetae_072.txt.gz
Theta_e
320 320 320 321 322 323 324 324 325 325 325 326 326 326 325 324 322 317 307 313 317 326 320 312 312 311 312 310 308 305 300 296 296 297 300 303 302 304 305 304 304 305 305 304 306
319 319 319 320 320 322 323 324 324 325 325 325 326 326 325 324 315 309 320 328 331 327 311 309 307 308 307 307 308 304 300 297 299 301 301 302 302 303 303 303 303 303 304 305 306
320 319 319 319 319 321 322 323 324 325 325 325 325 326 324 321 308 305 327 327 330 322 311 310 310 307 304 306 305 302 299 298 299 301 303 302 302 304 302 301 303 303 302 303 304
321 319 319 319 319 320 321 322 323 324 324 325 325 325 322 314 298 310 326 326 328 314 311 309 307 304 302 300 303 299 301 301 302 303 302 301 303 302 303 301 301 302 301 301 302
320 320 319 319 319 320 321 321 323 323 324 325 325 324 314 308 308 319 325 326 315 311 309 307 304 303 299 300 301 300 301 301 303 302 302 301 301 301 300 300 301 300 300 300 300
320 320 319 319 320 320 320 321 322 323 323 324 325 322 310 303 316 321 315 311 311 310 308 308 305 305 301 300 300 301 300 300 301 301 301 299 299 300 297 300 299 299 298 298 297
321 320 320 320 320 321 320 321 322 323 324 323 324 316 308 309 318 318 312 310 311 309 306 307 307 304 304 299 301 300 298 300 301 300 299 300 296 297 299 300 298 296 297 296 296
321 320 320 320 320 320 320 321 322 322 322 323 321 312 307 310 319 315 312 309 310 309 308 308 308 305 303 302 299 297 297 296 299 298 298 299 297 296 298 299 297 296 296 295 295
320 320 320 320 320 320 320 320 321 322 321 320 313 310 305 312 309 314 311 308 307 307 307 306 307 302 301 297 296 295 295 293 296 299 297 297 297 296 297 297 296 295 294 294 295
320 320 320 320 320 319 319 321 322 319 316 316 313 306 308 304 305 308 308 309 305 305 304 303 302 299 297 296 292 294 292 292 294 296 296 296 297 295 295 297 296 294 293 293 293
320 320 320 320 320 320 319 318 311 308 309 306 306 305 304 304 306 304 306 304 304 302 298 299 297 294 297 298 299 297 294 294 295 296 295 296 297 297 295 294 293 293 293 292 292
320 320 320 320 320 320 318 311 310 308 303 309 308 306 306 305 299 301 306 301 300 296 297 294 293 299 297 297 295 294 294 293 295 295 294 296 294 297 294 294 294 293 292 292 291
320 320 320 320 320 318 314 313 312 310 304 305 307 306 307 304 302 300 303 301 297 294 294 295 297 298 295 292 292 293 292 293 293 294 294 293 293 293 289 290 290 291 291 291 291
321 320 320 320 314 314 311 315 316 311 298 300 301 305 302 305 300 303 305 301 296 294 294 295 297 293 293 292 293 290 294 294 292 291 290 293 289 292 291 288 288 289 290 289 289
320 320 320 319 314 310 312 315 312 309 285 300 299 304 301 302 299 297 302 299 296 294 295 294 292 293 292 293 293 293 294 293 292 292 290 290 289 293 288 286 287 288 289 289 289
319 319 319 317 315 313 313 314 312 293 283 297 297 296 297 297 295 296 297 301 300 295 294 295 296 295 295 294 295 294 292 290 290 290 284 290 289 293 287 289 288 288 288 288 288
318 318 317 318 312 312 315 310 293 284 298 294 293 295 297 293 292 294 293 293 293 289 290 294 293 294 294 293 292 293 291 285 282 282 284 287 287 293 292 291 291 288 288 288 287
318 317 316 319 313 315 312 300 283 292 295 293 292 293 293 293 293 292 292 291 295 294 292 290 288 293 294 296 292 290 293 288 281 281 285 285 283 290 289 290 292 291 289 288 287
317 317 317 318 313 314 304 291 290 293 297 291 291 290 291 291 293 291 292 293 295 295 291 289 289 293 291 293 296 289 286 292 283 278 283 288 289 288 287 288 289 289 288 286 286
314 312 312 315 314 310 299 293 295 299 297 293 292 294 291 290 290 290 290 295 294 296 299 294 289 290 290 293 292 291 293 285 287 281 280 285 285 289 285 286 287 287 286 286 287
311 303 313 316 313 303 292 292 296 301 299 293 293 293 293 289 291 290 293 294 296 293 297 294 291 287 289 288 289 288 287 288 289 287 283 282 285 292 291 290 287 288 288 288 287
306 296 308 314 298 300 294 294 299 299 301 298 297 296 292 291 289 289 290 293 295 294 291 295 291 287 287 289 289 292 290 290 286 282 284 284 286 289 290 292 290 289 289 289 288
301 301 307 307 292 295 298 297 299 298 298 297 296 298 298 293 288 292 294 294 294 294 293 293 288 285 286 286 288 287 289 290 292 288 284 283 287 288 289 290 290 290 290 289 288
296 293 298 299 300 296 295 293 294 300 299 299 298 299 297 294 295 292 292 292 293 293 294 295 289 288 287 289 290 285 288 288 289 286 286 286 289 286 287 288 289 290 291 290 288
295 292 294 290 293 295 295 292 292 292 298 299 296 297 295 291 292 290 293 288 290 293 293 292 285 289 291 285 286 286 288 287 286 288 286 289 288 290 291 290 291 291 291 289 287
292 290 292 289 291 290 293 291 291 292 294 292 293 294 297 293 293 288 290 288 288 288 290 289 285 286 286 282 283 283 285 287 288 289 289 287 287 293 294 292 292 290 289 287 287
294 293 292 289 288 287 288 288 289 292 291 293 291 291 288 290 291 288 292 292 290 287 286 285 284 284 282 278 281 281 285 285 286 288 288 284 290 288 287 289 291 290 289 287 288

GFSSW_sfc_thetae_075.txt.gz
Theta_e
320 320 321 321 322 323 324 324 325 325 325 326 327 327 326 325 324 319 311 315 319 328 320 314 313 313 314 311 311 309 301 298 298 299 302 306 304 306 308 306 307 307 308 307 309
320 320 320 320 321 321 323 323 324 324 325 325 326 326 326 324 318 313 319 327 331 329 313 310 308 309 308 308 310 306 301 299 302 303 302 305 305 305 305 305 305 305 307 308 309
320 320 319 319 320 320 322 323 323 324 324 325 325 326 325 322 312 309 324 327 330 322 313 312 311 308 305 307 306 305 300 302 301 304 305 304 304 306 304 302 305 305 306 306 307
321 319 319 319 319 320 321 322 323 324 324 325 325 326 323 318 300 313 326 326 329 316 313 311 309 305 303 302 306 301 303 303 303 304 303 303 305 303 304 304 305 305 305 305 305
321 320 319 319 319 320 321 321 322 323 324 324 325 325 319 309 308 320 325 326 316 313 310 309 306 305 301 302 303 301 303 304 305 304 304 305 303 303 304 304 304 303 304 303 303
321 320 320 320 320 320 321 321 322 323 323 324 325 323 314 304 318 321 316 314 313 312 309 309 307 307 303 302 302 304 303 303 304 303 304 301 303 302 303 303 302 302 301 301 301
321 320 320 320 320 320 320 321 321 322 323 323 324 318 312 309 319 320 314 312 313 311 308 310 309 305 305 302 304 303 299 303 304 304 302 303 299 299 302 303 301 300 301 300 300
321 320 320 320 320 320 320 320 321 321 323 323 322 317 308 313 321 316 315 311 312 311 310 310 310 307 305 305 302 300 300 297 303 302 301 301 298 302 302 301 301 301 300 299 299
320 320 320 320 320 320 320 320 320 322 320 320 316 312 306 314 311 317 315 309 309 309 309 309 309 304 303 299 298 299 295 298 300 302 300 299 300 300 301 301 301 301 300 299 299
320 320 320 320 320 320 320 320 321 321 317 317 315 307 309 305 308 313 313 311 307 307 305 305 304 301 300 298 292 296 296 297 297 300 299 299 299 300 300 300 300 301 300 299 298
320 320 320 320 321 320 319 317 312 310 312 307 308 307 306 305 309 308 310 308 308 306 300 303 298 295 298 300 301 300 298 297 300 301 298 298 299 302 300 299 300 300 299 298 297
321 321 321 321 321 320 319 311 312 310 303 311 310 309 310 308 301 304 308 303 302 298 302 296 294 301 303 301 300 298 296 296 300 300 296 298 298 302 302 299 300 299 298 297 295
321 320 320 320 320 317 316 314 316 313 304 306 309 308 309 306 304 303 305 304 300 298 298 297 300 301 300 297 296 296 295 295 296 298 297 296 295 298 302 299 297 297 298 296 295
320 320 320 321 314 315 312 318 319 315 299 303 303 307 307 307 302 310 307 304 299 297 299 298 302 297 297 295 296 292 299 297 295 293 290 297 288 298 300 293 293 294 294 294 294
319 320 320 319 315 312 315 318 316 311 285 303 302 307 305 303 302 299 305 301 297 296 297 296 295 295 294 296 297 295 297 295 295 293 293 294 289 295 297 292 293 293 293 293 293
318 318 319 318 315 316 317 317 313 293 284 299 300 299 298 301 298 298 299 302 301 298 298 297 298 298 297 297 297 297 294 293 293 293 286 292 292 293 294 294 295 293 293 292 292
317 317 317 319 312 315 317 311 293 284 300 297 296 298 299 297 297 296 295 294 294 290 291 295 295 298 298 294 295 295 292 286 285 283 283 292 292 294 298 295 296 292 292 291 291
316 316 316 319 315 318 313 300 284 294 296 297 297 296 296 299 296 295 295 293 297 297 295 292 290 296 297 297 295 292 293 288 282 283 286 287 285 293 292 295 296 294 293 291 289
316 317 316 318 315 316 306 291 289 295 300 296 295 293 294 296 296 295 294 295 298 297 292 293 293 297 298 299 299 293 290 296 286 283 283 289 291 291 291 290 293 292 291 290 288
315 312 311 318 316 311 300 293 294 302 301 298 293 296 294 295 292 292 294 299 298 300 300 298 291 294 295 295 296 295 296 286 287 281 281 288 290 290 287 288 290 290 290 290 289
312 304 313 318 315 303 292 294 297 303 302 295 296 296 297 296 294 292 295 299 300 299 299 298 294 289 291 290 291 290 289 291 292 289 285 284 288 296 295 292 290 290 291 290 288
306 295 314 314 297 300 293 296 299 299 303 299 298 298 297 297 293 293 293 298 299 298 293 298 293 289 289 293 295 296 292 292 287 284 287 287 289 293 294 295 293 292 291 291 290
299 301 309 310 292 293 298 297 299 297 298 297 296 298 299 294 288 292 295 301 297 296 295 296 287 286 286 289 290 288 292 293 292 291 287 285 288 291 292 294 294 293 292 291 290
298 293 300 300 302 297 294 294 294 301 299 300 298 299 296 294 295 292 292 298 297 297 296 297 288 288 288 290 291 286 289 290 290 286 287 288 291 289 291 291 292 293 293 292 290
297 294 296 290 293 294 296 292 292 293 298 300 296 296 294 290 292 291 295 292 292 294 294 293 284 288 291 292 288 289 289 289 287 289 287 290 291 294 293 293 293 294 293 291 289
292 291 292 291 292 293 294 291 290 293 294 293 293 295 295 291 293 289 293 292 290 289 290 291 285 288 286 291 288 284 288 290 290 290 291 291 292 295 297 296 294 293 293 291 290
299 294 292 290 290 289 289 291 291 294 293 294 294 294 292 292 293 291 292 291 290 288 287 286 285 284 283 286 283 280 285 288 290 291 291 287 292 292 290 292 294 293 293 291 291

GFSSW_sfc_thetae_078.txt.gz
Theta_e
320 320 320 321 321 322 323 324 325 325 325 326 326 327 327 326 324 321 312 317 320 328 321 313 312 312 312 311 311 307 296 293 294 295 296 301 299 301 302 299 300 303 301 302 304
320 319 320 320 320 321 322 323 324 324 325 325 326 327 327 325 318 314 319 327 330 329 313 309 307 309 305 307 307 301 296 297 298 298 297 301 299 300 298 299 298 300 304 305 306
320 320 319 320 320 321 321 322 323 324 325 325 325 326 326 322 313 312 326 328 329 323 313 311 311 308 303 304 303 301 296 298 298 302 302 301 299 300 297 297 298 299 301 303 304
321 320 319 319 320 320 321 322 322 324 324 324 325 325 324 318 300 315 326 327 329 316 312 310 308 304 301 299 303 297 301 300 302 302 301 299 301 298 299 297 302 301 302 302 302
321 320 320 320 320 320 321 321 322 323 323 324 325 325 319 309 309 319 324 325 316 313 310 309 304 303 299 299 300 298 299 301 302 302 300 302 299 299 297 300 301 302 302 300 300
321 320 320 320 320 320 321 321 321 322 323 324 325 323 315 303 318 318 317 316 313 310 308 308 305 305 301 299 298 300 300 301 301 302 301 299 298 299 298 300 300 300 299 298 298
321 320 320 320 321 321 321 321 321 322 322 323 324 320 311 308 319 319 314 313 312 311 309 310 308 303 303 299 302 300 296 299 300 300 299 299 295 296 299 300 298 298 297 297 297
321 320 320 320 320 321 321 321 321 321 323 323 322 317 307 315 319 316 315 311 311 311 310 309 309 306 303 303 300 296 296 292 299 301 298 298 292 300 299 298 297 297 295 296 296
320 320 320 320 320 320 320 321 320 321 322 322 316 312 305 315 311 316 314 309 308 308 308 308 309 302 301 295 293 296 289 292 295 300 297 295 293 296 299 297 296 296 296 296 295
320 320 320 320 320 320 320 321 321 321 320 317 315 306 308 305 308 314 313 311 307 305 304 303 301 296 296 293 287 291 290 293 292 296 296 293 293 296 297 297 296 296 296 295 295
321 320 321 321 321 321 319 317 312 309 312 307 307 306 308 305 310 309 310 307 307 303 297 299 294 292 295 296 297 295 293 292 295 298 294 293 294 297 296 295 294 295 295 294 294
321 321 321 321 321 321 317 311 312 310 301 310 310 309 311 307 301 305 308 302 301 296 299 294 291 298 300 299 297 295 292 292 295 297 294 293 293 297 297 296 296 296 295 294 291
321 320 321 321 321 317 315 314 315 314 302 306 308 308 308 306 302 301 304 303 298 297 297 294 296 300 298 297 294 293 292 292 292 296 294 290 290 293 297 298 297 297 296 295 292
320 320 320 321 315 315 313 318 315 314 296 302 303 307 308 306 300 308 306 303 299 295 297 296 300 298 295 294 295 290 296 295 294 290 285 292 284 290 295 296 294 293 292 291 291
318 319 320 319 315 312 316 317 317 312 285 303 301 308 307 302 301 299 304 301 296 295 297 294 294 293 294 295 296 292 296 293 292 289 287 288 285 288 294 292 292 292 291 291 290
317 318 319 317 315 315 318 317 312 293 284 298 300 299 298 300 298 299 299 300 300 296 296 295 296 295 294 295 296 296 292 291 290 288 281 288 287 289 292 294 293 292 292 291 290
316 316 317 319 311 316 317 310 293 284 300 296 295 299 298 296 297 295 294 292 291 287 288 293 293 295 296 291 293 293 289 281 281 280 280 289 287 291 293 293 294 292 291 290 289
316 316 315 317 316 317 313 301 284 292 295 300 298 297 295 298 296 294 293 290 294 293 290 288 286 293 295 293 291 289 290 283 278 279 280 283 281 288 290 291 294 294 292 290 288
314 315 314 316 316 317 304 291 289 293 300 298 296 292 293 298 296 293 291 292 294 295 289 290 290 295 295 296 295 289 286 292 286 277 278 283 286 289 289 288 290 290 290 288 287
311 310 310 317 317 311 299 292 296 301 301 299 292 295 292 294 291 292 292 296 295 298 298 295 289 292 291 294 294 292 294 285 286 278 276 282 284 286 285 286 289 288 288 288 287
307 302 311 317 315 302 290 293 297 302 302 296 294 294 295 294 293 292 293 297 298 298 298 295 293 288 289 287 289 289 288 289 289 286 280 277 282 288 290 289 288 288 289 288 286
305 294 312 316 298 298 291 293 299 299 302 299 298 297 295 296 293 293 292 296 299 298 294 296 293 286 286 290 294 295 291 291 285 281 283 282 283 290 291 291 290 289 289 289 287
298 299 310 310 291 292 295 294 298 297 298 298 296 298 299 295 291 294 294 299 298 296 294 295 287 284 285 288 289 287 291 292 292 287 284 280 284 289 289 290 290 289 289 289 287
297 291 298 299 300 295 292 292 293 299 297 299 298 299 296 294 296 292 292 297 297 298 298 298 287 287 285 285 288 283 286 290 290 284 284 286 285 285 287 288 289 289 289 288 287
296 292 295 289 292 295 294 294 292 291 298 299 295 295 295 291 292 291 294 295 293 295 297 295 284 286 288 291 288 288 287 287 287 288 284 288 288 292 290 290 290 290 289 288 287
292 291 294 292 292 292 292 288 290 292 295 293 293 296 296 292 293 288 293 292 291 290 290 291 286 287 286 289 290 287 288 287 288 288 289 289 288 292 294 292 291 291 289 288 287
297 295 292 290 289 288 289 290 291 291 294 295 294 292 290 290 295 294 294 291 291 288 287 285 285 284 283 286 286 280 286 288 289 290 289 285 290 290 290 290 290 289 290 289 288

GFSSW_sfc_thetae_081.txt.gz
Theta_e
320 320 321 321 321 322 323 324 324 324 325 325 326 326 327 327 324 320 309 316 318 326 320 308 307 305 305 304 304 299 290 287 289 290 293 296 295 298 300 297 298 300 298 300 303
320 319 319 320 320 321 322 322 323 324 324 324 325 326 326 326 316 311 320 328 329 327 309 304 302 303 299 300 301 296 290 291 292 293 293 296 297 297 295 296 295 298 301 303 303
320 319 319 319 319 320 321 322 323 323 324 324 325 325 325 323 309 309 326 328 329 322 310 306 305 303 297 297 296 295 291 294 295 298 298 297 296 298 295 293 295 297 299 301 300
321 320 319 319 319 320 321 321 322 323 323 324 324 324 323 315 293 311 325 327 327 313 308 305 303 298 295 294 298 291 297 296 300 299 298 296 298 295 296 296 299 299 300 299 299
321 320 320 320 319 320 321 321 322 323 323 323 324 324 315 303 304 316 324 324 314 309 305 303 299 298 294 294 297 294 296 298 299 299 297 299 296 296 295 297 299 300 300 298 298
321 320 319 319 320 320 321 321 321 322 322 324 324 324 310 297 314 316 316 313 311 306 303 303 301 300 297 296 294 296 297 297 299 299 299 297 295 297 295 297 297 298 296 296 297
321 320 320 320 320 321 321 321 321 321 322 323 323 319 307 303 314 312 311 308 308 307 304 305 303 299 299 295 298 296 293 296 297 297 297 297 294 294 296 297 296 296 294 295 296
321 320 320 320 320 320 321 321 321 321 321 323 323 313 303 312 313 313 310 308 307 307 307 305 305 302 299 299 297 292 291 288 296 297 296 296 290 297 296 295 294 293 292 294 295
320 320 320 320 320 320 320 321 320 321 322 323 312 307 301 314 310 313 310 306 305 305 305 307 304 298 296 291 289 290 286 288 293 297 295 293 290 294 295 295 293 292 292 293 293
320 320 320 320 320 320 320 321 320 318 319 317 314 301 304 303 307 311 308 307 304 302 301 300 297 292 292 290 285 287 287 289 289 294 292 291 291 294 295 294 293 292 292 292 292
321 321 321 321 321 321 318 314 308 306 310 302 303 302 304 304 308 308 308 304 303 299 293 295 290 288 292 292 293 291 289 288 291 296 292 290 291 293 294 293 292 292 292 292 292
321 321 322 321 322 321 317 308 308 307 299 308 308 306 307 305 299 304 306 299 298 293 296 292 288 295 297 295 293 292 289 289 292 295 292 291 291 294 294 294 295 295 293 292 290
318 320 320 321 321 317 313 312 312 310 300 304 307 306 306 304 300 300 303 300 295 293 293 289 293 298 295 293 292 291 290 290 291 293 291 290 288 290 294 294 294 296 295 293 291
317 319 320 321 315 315 311 316 315 313 297 300 302 305 304 304 299 305 305 301 297 294 295 293 297 295 293 292 293 289 293 293 292 288 284 290 284 289 291 292 293 296 292 291 290
316 318 320 319 314 311 315 316 315 310 285 300 300 307 305 302 300 298 302 299 294 294 295 292 292 292 293 293 294 291 294 292 291 287 285 285 283 286 292 292 292 294 289 289 290
316 317 319 317 316 315 317 316 313 294 284 295 298 297 297 299 297 298 298 299 298 294 293 292 295 293 293 293 294 294 291 291 288 286 280 285 285 289 291 293 295 292 289 289 289
313 316 316 318 308 316 317 311 293 284 297 293 293 296 295 294 294 293 292 290 289 285 285 290 292 293 294 290 291 291 287 280 278 278 280 287 284 289 293 293 294 291 290 289 289
312 314 314 316 316 316 313 300 284 291 292 297 296 296 292 294 293 292 290 288 291 289 286 284 284 291 293 292 289 288 288 282 275 277 279 283 281 287 290 290 292 292 291 289 288
311 313 311 312 316 315 304 289 288 291 298 295 296 291 292 295 293 290 288 288 291 292 287 286 287 292 292 293 294 287 285 291 284 280 277 283 285 290 288 287 288 288 288 287 286
306 308 308 314 316 310 298 291 292 299 299 297 291 293 288 291 291 289 288 292 292 294 296 294 287 289 289 294 292 290 292 284 287 277 276 280 281 286 286 286 286 286 286 285 284
305 299 306 315 313 302 290 289 293 300 302 297 294 294 293 293 292 288 291 294 295 295 296 292 292 287 289 287 287 288 287 289 289 285 278 275 281 288 289 288 287 287 287 286 283
302 293 307 314 296 297 290 292 298 298 300 299 297 296 294 295 293 293 292 294 296 297 291 293 293 286 289 290 292 294 291 291 285 280 283 280 284 288 288 289 289 288 288 286 284
296 297 308 308 290 290 294 294 294 293 296 297 296 296 298 295 291 294 295 300 298 296 295 295 288 283 285 289 291 288 290 293 292 287 284 281 285 288 289 288 288 287 287 286 284
296 289 295 301 300 293 291 291 291 295 294 296 297 298 295 294 296 292 292 295 296 297 298 298 286 287 284 284 286 282 285 291 290 285 285 286 288 286 285 287 286 286 287 286 284
294 289 292 288 291 293 292 293 290 290 295 296 293 293 294 291 292 292 294 293 293 296 297 295 286 287 290 290 288 284 284 288 288 288 284 288 288 292 290 288 290 288 287 286 284
290 289 290 291 291 291 292 287 289 291 292 292 291 293 294 291 292 289 292 293 292 290 293 292 287 286 286 289 289 287 289 289 288 289 288 289 288 295 292 291 290 289 288 286 285
294 291 292 289 286 287 288 290 289 291 292 293 293 292 291 293 294 294 294 294 293 289 288 287 287 285 283 287 286 283 287 289 290 292 290 285 290 294 291 292 291 289 288 287 287

GFSSW_sfc_thetae_084.txt.gz
Theta_e
320 320 320 320 321 321 322 322 323 323 324 324 325 326 326 326 324 318 307 314 316 325 321 306 305 303 303 302 301 296 289 286 288 288 292 295 294 296 297 297 297 298 297 299 304
319 319 319 319 320 321 321 322 322 323 323 324 324 325 325 325 314 309 320 325 326 326 307 302 300 301 298 299 299 294 288 290 291 291 292 295 295 296 294 294 294 296 299 301 302
320 319 319 319 319 320 321 321 322 322 323 323 324 325 325 321 306 306 326 325 327 321 308 304 303 301 295 295 295 293 289 292 293 295 296 295 294 296 294 291 295 296 298 299 300
321 320 319 319 319 319 320 321 322 322 322 323 324 324 324 313 291 309 324 326 326 311 306 303 300 295 293 292 296 290 295 295 297 297 296 295 296 294 294 294 298 298 299 298 298
321 320 319 319 319 320 320 321 321 322 322 323 324 324 312 298 302 313 323 322 312 307 303 301 297 296 292 292 295 291 294 296 297 298 296 297 295 295 294 295 297 298 299 298 297
320 320 319 319 320 320 321 321 321 322 322 323 324 323 307 292 312 314 314 311 308 304 301 301 299 298 295 294 292 294 295 296 297 297 297 295 294 296 294 295 296 297 296 296 297
321 320 320 320 320 321 321 321 321 321 321 322 323 317 305 299 312 312 310 306 306 305 302 303 302 298 297 294 297 295 292 294 295 295 296 296 293 293 295 295 295 295 294 295 296
321 320 320 320 320 321 321 321 321 321 321 323 323 311 300 311 312 310 308 306 306 305 305 304 303 300 297 297 295 291 290 287 294 295 295 295 289 295 295 294 293 293 291 293 294
320 320 320 320 320 320 320 321 321 321 321 323 311 305 299 314 310 312 308 304 304 304 304 306 302 296 295 290 288 289 285 287 292 295 294 292 290 294 293 293 292 291 291 292 292
320 320 320 320 320 320 320 321 320 319 318 317 313 300 304 301 306 310 307 306 302 301 299 299 295 291 290 289 284 286 286 287 288 292 291 289 290 293 293 293 293 291 291 291 291
321 320 321 320 321 321 318 312 306 303 308 300 301 300 302 303 307 306 306 303 302 298 293 294 289 287 291 291 291 289 288 287 289 294 291 290 291 294 293 292 291 291 291 291 292
317 320 321 321 322 321 315 308 307 306 299 306 307 305 304 304 298 304 305 298 296 293 294 291 287 294 295 293 291 289 288 288 290 293 291 291 290 292 292 292 294 294 293 292 289
315 315 318 321 321 318 312 311 311 309 299 303 306 305 306 303 300 299 303 300 295 292 292 289 292 295 294 291 290 289 288 287 289 292 290 288 289 290 293 293 294 296 297 294 291
316 315 315 320 315 315 312 316 313 312 298 300 301 303 302 303 298 305 304 301 295 293 293 291 295 294 291 290 292 287 292 292 290 287 284 288 284 288 290 291 292 296 295 292 291
315 316 315 319 313 311 313 315 314 310 285 300 300 307 304 302 299 297 302 299 293 293 294 291 292 291 291 291 293 290 293 291 289 286 284 284 283 285 289 289 292 296 295 290 291
314 316 317 314 315 315 317 315 313 294 284 294 297 297 297 299 295 296 297 299 298 294 292 291 293 293 293 293 293 293 290 289 286 284 280 285 284 289 289 292 292 292 289 289 289
312 314 315 317 308 316 316 310 294 284 297 292 292 295 294 293 293 292 291 290 288 285 285 289 290 292 293 289 290 290 287 280 278 277 280 284 283 289 291 293 293 293 287 287 290
311 312 314 316 315 316 312 299 283 290 291 296 295 293 291 293 292 291 289 287 290 287 284 284 284 290 292 292 289 287 288 282 274 275 278 283 280 286 291 291 290 291 288 287 288
310 311 311 312 314 314 302 287 287 292 295 295 296 291 290 293 291 289 288 287 290 290 286 284 285 290 291 291 294 286 285 291 284 275 276 282 285 291 291 288 287 286 286 286 287
304 307 306 313 315 309 297 288 290 296 298 296 292 294 289 291 291 289 287 291 291 293 294 290 285 288 289 292 291 289 291 283 285 276 275 279 281 286 289 289 287 285 284 284 284
302 297 304 313 311 300 289 290 294 298 298 295 293 293 293 291 293 288 289 292 294 293 296 292 290 286 288 287 287 287 286 287 288 284 277 274 281 288 289 289 288 286 286 284 284
299 291 303 312 296 295 291 292 296 295 298 296 296 295 292 293 291 289 289 292 296 294 289 292 291 283 286 288 290 292 290 290 284 280 281 280 284 288 287 288 288 287 286 284 284
294 293 305 306 288 289 291 293 293 294 296 295 293 297 297 294 291 293 294 297 296 295 292 295 288 283 281 288 290 288 289 292 292 287 284 282 284 287 288 287 287 286 285 284 282
292 286 293 299 298 292 290 290 290 294 294 295 295 298 295 293 296 292 292 297 297 298 299 298 288 284 281 283 286 282 285 290 290 285 283 285 288 290 286 286 286 285 285 283 282
293 286 290 287 290 293 293 290 289 289 294 295 291 291 292 289 291 291 294 293 294 296 296 296 287 287 289 289 286 284 284 287 287 289 285 288 287 292 292 292 291 287 285 284 282
288 286 289 287 291 290 291 288 287 290 292 290 290 291 292 290 292 288 292 293 292 291 293 292 288 286 287 288 287 288 289 286 288 290 290 290 289 296 293 289 288 288 287 285 284
292 294 289 287 286 287 288 290 289 291 293 294 294 292 291 293 294 294 293 293 293 290 288 289 288 286 283 288 287 283 288 289 290 291 291 286 291 296 292 294 294 288 288 287 286

GFSSW_sfc_thetae_087.txt.gz
Theta_e
320 320 320 320 320 320 321 321 322 322 323 323 324 325 325 325 323 315 304 312 315 324 320 305 303 302 302 300 299 294 287 284 287 289 291 293 294 294 295 295 295 296 298 299 306
319 319 319 319 319 320 321 321 321 322 322 323 323 324 325 325 312 307 319 326 326 324 305 300 298 299 297 297 297 292 286 289 291 290 291 293 293 295 294 293 292 294 297 300 310
320 319 319 319 319 320 320 321 321 322 322 323 323 324 324 320 303 303 325 327 327 319 306 303 301 299 294 294 296 290 289 291 291 294 294 294 293 294 292 290 294 295 297 299 302
320 320 319 319 319 319 320 321 322 322 322 322 323 324 323 311 288 306 324 326 326 310 304 301 298 294 291 290 294 292 292 293 295 296 294 293 294 293 293 294 296 297 298 298 300
321 320 319 319 319 320 321 321 322 322 322 322 324 323 311 296 299 311 323 321 309 305 301 299 295 294 290 291 293 292 292 294 295 296 294 295 294 294 294 294 295 297 298 298 298
320 320 319 319 319 320 320 321 321 322 322 322 324 322 305 292 310 311 310 309 306 302 300 299 297 297 293 292 290 292 294 294 295 295 295 294 292 294 294 295 295 296 296 296 297
321 320 319 319 320 320 320 321 321 321 321 321 324 315 302 298 310 311 308 304 304 303 300 301 300 296 295 292 295 293 291 293 294 293 294 295 292 292 294 294 294 294 294 295 296
321 320 320 319 320 320 321 321 321 321 321 322 323 309 299 309 309 308 307 304 304 304 303 302 301 299 295 295 294 290 289 287 292 293 293 294 289 294 293 293 293 293 292 293 294
320 319 320 320 320 320 320 321 321 321 322 322 309 304 298 313 308 310 306 303 303 302 302 305 301 295 294 289 287 287 284 285 290 294 292 290 290 292 292 292 292 291 291 292 292
320 319 320 320 320 320 320 321 320 319 317 316 312 300 303 300 305 309 305 305 301 299 298 298 294 291 289 289 283 284 284 286 288 291 290 289 290 293 292 292 292 291 290 291 292
319 320 320 320 320 321 318 311 306 303 307 300 300 299 301 303 306 305 304 302 300 297 292 293 289 287 291 291 290 289 286 286 289 292 289 289 290 294 293 291 290 291 291 292 292
318 318 319 321 322 322 316 308 307 304 299 306 306 304 304 303 298 303 303 298 296 292 292 289 286 293 294 292 290 288 286 286 289 292 291 290 290 291 292 291 294 294 293 293 291
315 315 317 318 321 319 313 311 311 308 301 304 305 304 304 302 298 299 301 297 293 291 291 288 291 294 293 289 288 287 286 286 288 290 289 288 288 289 292 293 294 295 298 295 293
314 315 315 319 315 315 312 316 312 311 296 299 301 304 302 303 298 303 303 299 294 292 291 290 294 293 290 289 290 285 290 290 288 286 283 287 283 288 290 291 291 294 296 293 291
313 314 315 316 312 311 314 315 313 311 285 298 299 305 302 300 298 297 301 298 293 292 293 290 290 290 289 290 292 288 291 289 287 285 282 281 282 285 288 288 291 295 294 291 290
312 315 315 312 314 313 317 316 312 294 284 294 297 296 296 296 295 296 297 298 297 293 291 290 292 292 292 291 293 292 289 287 285 283 280 285 284 289 287 289 291 291 291 290 289
311 313 314 315 307 315 316 310 293 285 295 291 291 294 293 291 291 291 291 290 290 286 285 288 289 291 292 289 289 290 287 280 278 277 279 283 282 289 291 293 292 292 290 289 287
310 310 312 314 315 315 311 299 282 290 292 294 293 293 290 293 291 290 288 287 290 288 284 284 283 289 292 292 289 287 287 281 274 275 278 282 280 286 290 292 291 290 288 286 287
309 307 310 312 314 314 300 284 286 291 295 294 293 290 289 291 291 288 287 287 290 289 286 283 284 289 289 290 293 286 284 290 282 271 276 281 284 289 291 290 291 287 285 285 286
301 304 304 312 314 308 294 287 290 296 298 296 291 292 288 290 289 288 287 290 290 293 294 289 284 287 288 291 290 288 291 284 284 275 275 279 280 284 288 290 289 287 285 284 285
298 295 303 313 311 299 287 289 293 297 297 295 293 292 292 291 292 289 289 291 293 292 295 291 288 285 287 286 286 286 284 286 288 283 275 273 281 287 289 289 288 288 287 284 283
295 288 302 310 294 294 288 292 296 295 297 296 296 296 292 293 292 292 291 292 295 293 289 291 289 280 285 288 290 289 288 290 284 279 281 279 284 288 288 287 288 288 286 284 284
290 290 301 303 287 288 292 291 294 293 294 294 293 296 296 293 290 291 291 296 295 293 291 294 286 282 282 287 289 287 288 291 290 286 280 281 284 287 287 287 287 287 284 283 282
292 284 290 297 297 291 289 290 289 294 293 295 295 296 294 293 295 291 290 295 295 295 298 297 287 284 284 284 287 284 285 288 289 284 284 285 288 292 287 287 288 286 285 283 282
292 285 289 285 288 291 292 291 289 288 294 294 291 292 292 290 290 291 294 294 295 297 297 295 287 287 288 287 287 286 286 286 287 288 286 289 287 292 293 292 294 290 286 283 282
285 284 289 285 290 289 290 288 288 290 291 290 289 290 291 289 289 287 292 293 293 292 293 293 288 287 287 288 287 285 285 287 288 289 290 290 289 297 293 290 289 290 287 284 283
289 290 290 285 284 284 286 288 288 291 292 294 292 291 289 291 293 294 294 295 295 291 289 287 290 287 284 287 286 282 287 288 289 290 290 286 291 296 292 294 295 294 288 287 287

GFSSW_sfc_thetae_090.txt.gz
Theta_e
319 320 320 319 319 320 321 321 322 322 322 323 324 324 325 325 323 313 302 311 313 326 320 303 301 300 300 298 297 291 286 284 285 288 290 292 292 293 293 294 293 295 298 300 310
319 319 319 319 319 319 320 321 321 321 322 322 323 324 324 324 310 305 318 326 328 324 302 299 296 297 296 295 295 289 284 286 289 288 292 292 292 294 293 292 292 294 296 300 315
320 319 319 318 318 319 320 321 321 321 322 322 322 324 324 319 300 301 325 327 324 317 305 301 299 297 293 296 295 289 287 289 289 292 293 292 291 294 292 290 294 295 296 300 311
321 320 319 319 318 319 320 321 321 322 321 322 323 324 323 309 287 305 324 325 325 307 303 300 297 293 290 292 293 290 291 291 293 294 293 291 293 291 292 294 294 296 298 298 308
321 320 320 319 319 319 320 321 321 321 322 322 323 323 311 294 298 309 321 320 306 303 300 298 294 293 289 291 292 292 290 293 294 294 292 294 293 293 292 294 295 294 298 298 301
320 320 319 319 319 319 320 321 321 321 321 322 324 322 303 291 307 309 308 306 304 301 298 298 296 295 292 290 291 290 292 292 294 294 293 293 291 292 294 294 294 295 296 297 299
320 320 319 319 320 320 320 320 321 321 321 321 323 314 302 297 309 309 306 303 303 301 299 299 298 295 293 290 294 292 291 292 293 292 293 293 292 291 292 293 294 294 294 295 296
320 320 319 319 320 320 320 321 321 321 321 322 323 307 299 307 308 306 304 302 303 303 302 301 300 298 294 294 293 290 289 286 290 292 292 293 288 293 292 293 293 292 292 293 295
320 319 320 320 320 319 320 320 320 321 321 321 308 303 297 312 306 308 304 302 301 301 301 304 299 293 293 289 286 286 283 284 289 292 290 290 289 291 290 291 292 291 292 292 292
319 319 319 320 320 320 320 321 321 318 316 315 310 299 301 299 304 307 303 303 300 298 297 297 293 290 288 288 282 283 282 284 285 289 289 288 289 292 291 291 292 291 291 291 292
320 320 320 320 320 321 317 311 306 303 305 299 298 297 300 302 305 303 303 301 299 296 291 291 289 287 290 289 288 287 285 285 287 291 288 288 288 293 293 290 291 291 291 292 293
318 318 320 321 321 322 316 308 307 304 299 306 304 303 304 303 298 302 302 298 295 291 291 288 286 292 293 291 289 287 285 285 289 291 289 289 289 292 294 291 293 295 295 294 293
316 316 318 319 321 320 314 311 312 308 301 304 305 303 304 301 297 299 300 296 293 290 290 288 290 293 292 288 287 285 285 285 287 288 288 286 286 288 291 293 294 294 297 297 293
315 315 316 319 315 316 312 315 314 310 298 298 300 304 301 301 296 302 301 298 293 291 290 289 292 291 288 288 290 284 289 288 287 285 282 286 282 287 290 291 290 294 295 292 291
312 314 315 316 312 310 314 316 313 311 284 297 298 305 301 299 298 297 300 297 292 292 292 288 289 289 288 289 291 287 289 288 286 284 281 281 281 284 287 287 291 294 293 292 290
312 313 314 312 313 313 316 316 312 294 284 293 296 295 294 295 293 296 297 298 297 292 290 289 292 292 292 291 291 291 288 287 284 283 279 283 284 290 286 289 290 291 291 291 289
311 311 312 314 307 314 315 309 291 283 296 290 290 293 292 290 290 291 291 290 289 285 285 287 288 290 291 288 289 287 286 280 278 277 279 281 281 290 291 291 290 292 290 290 288
310 310 310 313 315 315 309 295 282 288 291 294 292 292 290 291 289 288 288 286 289 287 284 285 283 289 291 290 288 286 286 281 274 275 278 282 279 285 290 291 291 289 288 287 285
308 304 305 311 314 312 299 284 285 290 295 294 294 290 290 290 290 287 286 286 289 289 287 283 284 288 289 290 293 285 283 289 282 270 275 280 283 289 290 290 290 290 287 287 285
298 299 302 312 314 307 294 287 289 296 298 297 290 293 289 289 288 288 286 290 290 291 293 289 284 286 288 290 289 288 290 283 282 275 274 278 280 285 287 288 289 288 288 286 284
296 294 299 311 310 298 286 288 292 296 298 295 293 292 292 291 292 288 289 291 291 290 295 291 289 284 287 285 286 286 285 286 287 282 275 272 281 286 288 289 289 288 288 286 285
294 287 300 308 293 294 288 291 296 294 298 297 295 295 293 293 291 290 290 291 295 294 289 292 290 283 284 286 290 288 287 288 284 279 280 279 283 289 289 288 288 288 287 284 284
287 288 298 304 286 288 291 291 293 293 294 294 293 296 296 293 290 291 292 297 295 293 291 294 287 281 283 286 288 286 287 290 289 286 279 277 284 286 287 288 288 287 285 285 283
287 280 288 297 294 288 287 288 288 294 293 295 294 295 293 291 295 291 289 294 295 296 297 297 287 284 283 284 287 285 285 288 289 284 282 285 288 290 287 288 289 288 286 285 283
288 283 286 279 287 291 292 290 287 288 293 294 292 292 291 288 289 288 292 293 294 296 295 294 287 286 286 286 286 285 286 287 286 288 286 289 287 292 293 292 294 293 289 285 283
285 282 286 285 288 286 287 287 287 289 291 289 289 290 292 289 290 286 291 291 292 292 293 293 286 286 287 286 286 283 286 287 288 289 289 290 288 296 292 291 290 291 290 286 285
287 291 285 282 281 281 281 287 286 288 292 293 292 290 289 291 294 294 293 294 294 291 288 288 288 285 284 288 286 282 287 288 288 290 289 286 291 295 293 291 293 295 291 289 289

GFSSW_sfc_thetae_096.txt.gz
Theta_e
320 320 320 320 319 320 320 321 321 321 321 322 323 323 325 325 323 319 309 315 318 325 320 311 310 310 310 307 306 303 302 298 298 298 301 302 302 302 304 304 307 309 308 313 324
320 319 319 319 319 319 319 320 321 321 322 322 322 323 324 324 315 310 320 326 327 324 310 308 306 308 307 305 305 303 299 298 300 301 301 302 303 303 303 303 304 306 308 309 324
320 320 319 318 318 318 319 320 321 321 322 322 322 324 324 322 307 306 325 327 326 320 311 309 308 307 303 304 302 300 298 298 299 300 301 302 301 304 303 302 306 306 309 309 322
321 320 320 319 318 318 319 320 321 321 321 322 323 324 323 315 296 311 324 325 324 313 310 307 306 304 302 300 302 298 299 299 300 301 301 301 302 301 303 306 306 309 307 309 318
321 320 320 320 319 318 319 320 321 321 322 322 323 324 315 303 303 314 322 321 312 310 308 306 304 303 300 301 301 300 299 300 301 300 301 300 301 302 302 307 306 305 304 308 313
320 320 320 319 319 318 319 320 321 321 322 322 323 322 308 297 312 314 313 310 309 309 307 307 305 304 301 300 300 300 300 300 301 301 301 300 301 300 303 304 304 304 305 307 310
320 320 319 319 319 319 319 320 321 321 321 322 323 316 307 302 315 316 311 309 309 309 307 307 306 304 303 299 301 300 298 300 301 300 300 301 299 299 305 303 303 304 305 305 307
320 319 319 319 319 320 320 320 321 321 322 322 323 313 302 311 316 310 310 308 309 309 309 308 308 305 303 303 301 298 299 295 298 299 299 300 296 302 302 302 303 305 306 305 306
320 319 319 319 319 319 320 320 320 321 322 322 313 308 300 315 309 312 310 307 307 307 308 307 307 302 302 299 296 297 293 294 296 299 298 299 298 302 301 301 303 305 306 305 306
320 319 319 320 319 319 319 320 321 320 317 315 312 304 305 302 310 309 308 308 305 306 305 305 303 300 299 297 290 293 292 293 294 297 296 297 297 302 303 301 304 306 306 306 306
320 319 320 320 320 321 320 315 311 308 309 303 303 300 302 307 310 307 307 305 305 303 298 299 297 294 297 298 296 294 293 293 296 297 296 297 297 299 303 303 302 304 305 306 307
319 320 320 320 321 321 319 312 310 308 303 309 305 305 306 308 302 305 306 303 301 297 297 296 293 298 298 297 295 294 293 293 296 296 295 296 295 299 301 302 304 305 306 307 308
317 318 318 320 321 319 315 315 316 312 305 306 307 305 306 305 302 304 304 302 299 295 295 293 295 297 296 293 292 293 292 293 292 295 295 293 294 297 300 301 303 304 305 306 307
315 316 317 318 315 317 313 319 316 315 299 299 303 306 303 305 300 306 306 303 298 295 295 295 297 294 293 293 294 290 295 294 292 292 289 294 287 296 300 301 301 304 305 305 305
312 314 315 316 313 310 314 319 317 316 285 301 301 308 303 302 301 300 303 302 297 295 296 294 293 293 292 293 295 293 295 294 293 292 290 292 289 295 297 297 301 305 305 303 303
311 312 314 314 313 314 316 316 312 294 284 296 300 298 297 299 297 299 300 302 301 296 295 294 296 296 296 294 296 294 293 292 291 291 286 292 291 293 297 299 302 303 301 301 301
309 310 310 314 309 315 315 305 292 284 296 294 295 296 296 295 294 296 294 294 293 289 290 292 293 295 295 292 294 294 293 287 286 284 285 290 289 294 299 300 301 301 301 302 300
309 309 308 311 315 316 310 292 282 285 291 296 294 295 294 294 294 293 293 291 296 294 292 289 287 294 296 296 293 291 294 289 284 284 288 287 286 294 300 302 301 300 300 300 300
306 307 306 308 311 312 300 285 287 289 294 294 294 291 291 293 293 292 293 293 296 295 291 290 289 295 294 296 298 292 288 296 290 282 285 291 295 297 299 299 299 299 299 300 298
303 302 302 311 312 306 293 288 291 296 298 296 288 291 287 290 290 289 291 296 295 296 298 294 289 291 293 296 295 295 297 288 290 284 283 289 290 292 296 297 298 298 300 298 296
301 295 301 313 311 298 286 289 292 296 300 295 292 290 290 289 289 287 289 294 295 294 297 296 292 289 291 291 292 291 290 290 292 290 286 285 290 297 299 298 298 298 298 298 296
298 289 301 311 294 294 289 292 295 295 299 297 296 294 292 293 291 289 289 293 296 295 291 295 292 287 289 292 294 294 293 293 288 285 287 286 290 296 297 299 299 298 297 297 297
292 292 301 305 287 288 293 292 295 294 295 296 294 295 295 292 289 291 292 297 297 296 293 295 288 284 285 289 293 289 292 294 294 290 287 286 290 292 293 294 295 297 296 295 294
292 284 291 296 297 290 289 289 289 295 294 296 295 297 294 292 294 290 291 295 297 295 296 297 287 286 286 288 291 287 289 291 292 287 288 288 292 292 293 294 295 295 296 296 294
291 286 289 286 289 291 291 289 287 287 293 294 292 293 292 288 289 290 293 294 296 296 294 292 284 286 291 293 291 291 291 290 288 290 286 292 292 296 298 297 299 298 296 294 293
288 286 287 286 288 290 290 288 287 289 291 289 289 292 293 289 290 286 290 291 291 294 293 292 285 286 286 288 288 286 291 292 293 292 291 292 292 300 301 303 302 298 298 297 295
292 292 290 285 286 287 287 288 288 291 290 293 292 290 289 290 293 294 295 294 292 289 287 287 286 285 283 288 287 283 288 290 292 294 294 289 295 300 299 298 299 300 301 300 300

GFSSW_sfc_thetae_099.txt.gz
Theta_e
322 321 321 320 319 319 320 320 320 321 321 322 322 323 324 325 323 321 310 316 318 324 320 312 312 313 312 309 310 309 302 299 300 301 302 307 305 307 309 307 308 312 311 317 323
321 320 320 320 319 319 319 320 320 321 321 321 322 323 324 324 317 310 318 325 326 325 311 309 307 310 308 307 308 305 302 302 304 305 303 305 306 306 305 305 306 308 312 315 325
321 320 319 319 318 318 319 320 320 321 321 321 322 324 324 323 310 308 323 325 326 319 313 311 310 308 305 307 305 303 300 302 301 303 304 305 304 307 305 304 307 307 310 311 322
321 320 320 319 318 318 319 320 320 321 321 322 323 324 323 318 297 313 324 325 324 315 312 309 308 304 303 301 305 299 302 302 302 303 303 302 306 304 305 307 309 311 311 312 317
321 321 320 319 318 318 318 320 320 320 321 322 323 323 318 306 305 315 322 321 314 312 310 308 305 305 301 302 303 301 301 302 303 302 303 303 303 304 305 309 310 308 308 310 312
320 320 320 319 319 318 319 319 320 321 321 322 323 322 311 299 314 315 314 312 312 311 309 309 306 307 303 302 302 303 302 302 303 303 303 301 302 302 305 308 308 308 307 309 310
320 319 319 319 319 319 319 320 320 321 321 322 323 317 308 304 316 317 314 311 312 311 308 310 309 306 305 301 304 302 299 302 302 303 302 303 300 300 306 306 305 306 307 308 309
320 319 319 319 319 319 319 320 320 320 321 322 323 315 303 314 318 312 313 310 312 312 311 310 310 307 305 306 303 300 300 296 302 302 302 302 296 304 306 306 305 307 308 308 309
320 319 319 319 319 319 320 320 320 321 322 322 315 311 301 316 310 313 312 308 310 310 310 310 310 305 304 299 297 299 293 296 298 302 301 300 298 304 305 305 305 308 309 309 309
319 319 319 319 319 319 319 320 321 321 318 316 314 306 306 302 311 311 311 310 307 307 306 306 304 300 300 298 290 294 294 296 296 299 299 299 298 302 305 305 305 306 307 308 309
320 319 319 319 320 320 319 319 311 309 311 303 303 302 303 309 313 309 309 307 307 305 298 303 297 294 297 299 299 297 296 294 297 300 297 297 298 300 304 304 304 305 306 307 308
320 320 319 320 320 321 321 311 311 310 302 310 308 306 308 310 303 307 309 303 302 297 300 297 293 299 301 299 298 296 294 294 297 300 297 297 297 301 303 303 304 305 306 307 309
318 319 319 319 320 319 317 314 319 316 303 305 309 306 305 307 302 305 306 304 300 297 298 294 297 300 299 296 294 294 293 293 294 297 298 296 295 298 302 304 305 306 307 308 308
316 316 318 319 315 317 313 320 319 319 295 297 302 307 306 306 300 310 308 304 300 296 298 296 300 297 296 294 296 291 297 296 294 292 289 296 288 296 299 301 304 306 308 309 309
314 314 316 316 314 312 314 321 318 317 284 300 304 311 307 301 301 302 309 304 298 297 297 294 295 295 293 295 297 294 297 295 295 293 293 293 289 294 300 298 301 306 308 310 309
311 312 314 314 315 314 316 316 315 293 283 297 302 300 299 301 300 300 300 304 303 299 298 297 298 298 297 297 298 298 296 295 295 293 286 292 291 292 296 299 302 306 307 306 305
309 309 310 314 310 317 316 305 292 284 299 295 297 299 299 297 297 298 296 295 293 289 290 295 294 297 298 294 296 296 293 286 286 286 285 294 292 295 300 303 304 306 305 304 305
308 308 308 312 316 316 307 293 281 286 293 297 297 298 295 297 297 296 295 292 297 296 293 289 287 294 297 296 293 293 293 288 284 284 287 290 287 294 303 305 306 306 307 305 304
306 308 308 308 312 314 300 284 287 290 295 294 294 292 293 295 296 295 295 294 297 298 291 291 291 298 298 299 298 293 290 297 290 288 286 290 295 301 302 302 304 304 303 303 305
305 304 303 310 312 306 295 289 293 296 298 296 290 292 288 290 291 291 294 297 297 300 300 295 290 296 296 297 299 296 299 289 291 284 283 288 291 293 298 299 303 303 302 304 303
303 297 304 313 311 297 286 289 294 298 300 295 292 289 291 289 289 286 287 294 297 297 299 296 294 290 293 292 292 292 292 293 294 291 286 285 290 301 300 303 303 304 304 304 301
299 290 306 312 295 294 287 292 295 295 298 297 297 295 293 293 290 290 290 294 296 297 291 296 293 289 291 294 296 296 293 294 289 287 290 289 290 300 300 302 303 302 301 302 302
293 294 304 306 288 290 293 293 295 294 295 295 294 296 296 293 289 291 293 298 298 296 291 294 286 284 285 289 293 290 294 294 295 291 289 286 290 297 297 298 298 300 300 299 299
292 285 294 296 298 293 290 290 291 297 296 297 296 297 293 290 293 290 291 295 298 295 296 295 286 286 286 287 291 288 291 293 292 287 288 289 293 298 298 296 298 299 299 299 298
293 287 291 286 288 292 293 291 289 289 295 296 294 294 293 289 291 290 293 294 297 297 296 292 285 287 288 289 288 287 287 291 289 290 285 291 293 297 300 300 299 301 301 298 297
289 288 290 289 291 290 290 288 288 290 291 290 290 294 294 290 290 288 291 292 291 295 292 293 285 287 285 289 289 286 288 289 290 292 291 293 292 300 301 302 303 303 301 297 298
295 296 291 287 288 288 287 289 289 291 292 294 293 292 291 292 294 294 295 294 293 290 287 287 285 285 283 289 287 283 287 289 291 294 294 289 295 300 300 300 302 302 303 303 302

GFSSW_sfc_thetae_102.txt.gz
Theta_e
321 322 321 321 320 320 320 320 320 320 321 322 322 324 325 325 324 321 311 316 319 324 321 311 311 310 310 309 310 307 297 294 296 297 296 302 300 301 303 301 301 306 305 312 317
322 321 321 320 319 319 319 319 320 320 321 321 322 323 324 324 317 311 320 325 325 325 311 307 305 307 304 305 304 300 296 297 299 299 298 301 300 301 298 299 299 302 307 314 319
321 320 320 320 319 318 319 319 320 321 321 322 322 323 324 321 312 310 325 324 325 321 313 310 308 307 302 303 301 299 296 298 299 301 301 300 298 302 298 297 301 302 305 310 317
321 320 320 319 319 318 318 319 320 321 321 322 323 323 323 318 299 313 324 325 325 314 311 307 306 302 300 298 302 295 300 299 302 301 300 298 301 298 299 300 303 303 306 309 315
321 321 320 320 319 318 318 319 320 321 322 322 323 323 318 307 306 314 321 321 314 312 308 306 302 302 298 299 300 296 298 299 300 299 298 300 297 298 298 302 303 304 304 306 311
320 320 320 319 319 318 319 319 320 321 322 322 323 322 313 299 314 315 314 313 311 310 307 307 304 304 300 299 297 299 300 299 300 300 300 297 297 297 298 302 302 303 302 302 305
320 319 319 319 319 318 319 319 320 321 321 322 323 318 308 305 315 314 313 311 311 310 307 308 307 303 302 298 301 299 295 298 298 299 298 299 295 296 300 301 300 300 300 302 303
320 319 319 319 319 319 319 319 320 321 322 322 323 315 303 314 316 313 312 310 311 311 311 309 308 306 303 302 299 295 294 289 296 299 298 296 289 298 299 299 298 300 299 300 302
319 319 319 319 319 319 319 320 320 320 322 323 316 311 301 316 309 312 311 308 308 309 309 309 309 302 301 294 291 293 286 290 294 299 297 295 292 298 299 297 298 299 301 302 302
319 319 319 319 319 319 319 319 321 320 319 317 313 305 305 303 311 311 310 310 307 306 304 304 300 295 294 291 284 288 288 291 289 295 294 293 293 297 299 299 299 299 299 300 301
319 319 319 319 319 320 318 317 310 308 310 303 303 301 304 309 313 308 309 306 306 302 295 299 292 289 292 294 294 293 290 289 291 296 293 293 293 295 297 297 297 297 298 299 301
320 319 319 319 320 321 319 310 310 310 302 308 307 306 308 309 303 306 308 300 300 294 297 294 290 296 297 296 294 293 289 289 292 295 293 292 292 296 297 297 298 300 298 299 300
319 319 319 319 320 318 314 314 319 316 302 304 308 305 305 307 301 303 304 301 297 294 294 291 294 298 295 293 292 290 289 288 289 292 293 290 289 292 297 298 300 301 302 302 301
318 318 319 319 313 316 312 318 319 318 293 296 303 306 305 305 299 308 306 302 297 293 294 293 297 294 292 292 293 288 293 292 291 287 283 291 281 289 293 295 298 299 299 300 301
315 316 317 320 314 312 314 319 318 314 281 297 302 311 306 299 300 302 306 302 295 295 295 291 292 292 291 292 294 290 294 291 290 287 286 286 283 287 293 291 294 297 299 300 303
311 313 315 314 314 313 316 317 313 290 281 297 301 299 298 299 299 299 299 302 301 296 295 293 296 294 293 295 295 296 293 292 289 287 280 286 285 284 289 292 295 297 299 300 299
308 309 309 315 309 316 313 306 292 284 298 293 295 299 297 295 296 296 294 293 291 287 288 292 292 294 295 291 294 293 289 280 280 279 279 288 285 288 294 296 296 297 297 299 299
308 307 308 311 317 314 307 294 282 286 292 298 299 298 294 296 295 295 292 290 294 292 288 286 284 292 294 293 290 289 289 282 275 278 280 285 282 289 296 297 298 300 299 299 298
306 307 306 307 314 313 300 285 286 289 296 294 295 293 293 296 294 293 293 291 294 294 288 286 286 294 295 295 295 290 286 292 285 279 279 284 288 294 297 298 298 298 298 297 298
303 303 303 310 312 307 295 289 291 297 298 297 290 293 290 292 291 292 292 295 294 297 297 291 286 292 292 294 295 292 294 285 286 276 274 281 282 286 292 295 296 297 297 297 298
302 295 305 310 310 297 286 290 294 299 300 295 291 289 289 288 290 288 289 294 297 295 296 294 291 287 291 289 289 289 287 290 290 286 278 277 282 292 294 295 296 297 298 298 296
298 289 305 310 292 292 287 291 296 296 300 297 297 293 291 291 288 287 288 292 297 297 291 295 292 285 286 291 294 292 291 292 285 282 284 282 285 294 295 295 296 296 297 296 296
291 293 305 305 287 289 292 293 295 295 296 296 294 296 296 292 288 291 292 298 297 296 292 294 286 284 285 289 291 289 291 293 292 288 282 280 285 293 294 294 294 293 294 294 295
290 284 293 296 296 291 290 290 291 297 296 298 295 296 293 291 294 290 292 295 297 295 296 295 285 285 284 285 290 286 290 292 291 285 285 286 289 292 295 295 292 294 293 294 294
292 285 290 284 288 291 292 291 289 289 296 297 293 294 292 289 289 289 292 294 296 296 295 291 284 286 287 286 286 286 285 287 286 288 285 288 289 292 295 296 297 296 295 295 294
289 286 289 287 289 288 289 286 289 291 292 290 291 293 294 290 291 287 291 291 291 293 292 292 284 286 283 288 286 284 287 288 289 289 289 290 289 296 298 299 297 299 299 295 295
294 295 289 285 285 286 285 288 288 291 292 293 292 292 291 293 294 294 294 293 293 290 287 287 286 284 280 285 285 280 285 288 289 291 291 287 291 297 295 297 298 298 298 299 300

GFSSW_sfc_thetae_105.txt.gz
Theta_e
322 322 322 322 321 321 320 320 320 320 321 322 322 323 324 325 324 319 310 315 317 323 319 307 306 305 305 304 304 300 292 289 291 293 293 297 297 299 300 300 299 303 307 310 316
322 322 322 321 320 320 320 319 319 320 321 321 322 323 324 324 316 310 322 327 325 323 307 303 301 303 299 299 299 295 289 292 293 293 293 297 297 298 296 296 296 301 307 314 321
322 322 321 321 320 319 319 320 320 321 321 322 322 323 323 321 310 308 324 327 324 320 309 306 305 302 297 298 296 294 292 294 295 297 297 297 295 298 296 293 298 299 305 313 315
322 322 321 321 320 319 319 319 320 321 321 322 322 323 323 315 293 311 324 325 324 311 308 304 302 298 295 294 298 292 296 296 299 298 297 295 297 295 297 298 300 301 306 312 313
321 321 321 320 320 319 319 319 320 321 321 322 323 323 315 303 302 312 321 319 311 309 305 302 298 297 294 294 296 293 294 296 298 297 295 297 294 295 295 299 298 302 305 311 313
320 320 320 320 320 319 319 319 319 321 321 322 323 322 309 295 311 313 312 310 309 306 303 302 300 300 296 295 294 296 296 295 297 297 296 294 293 295 296 298 298 300 302 305 310
320 319 319 319 319 319 319 319 320 321 321 322 323 317 304 300 310 310 310 307 308 306 304 304 303 299 298 295 298 297 292 293 295 296 295 296 292 294 297 297 297 297 298 300 304
320 319 319 319 319 319 319 319 320 321 321 322 323 310 298 311 309 309 308 306 307 307 307 305 304 302 299 298 296 291 290 286 292 296 296 293 286 294 297 296 296 296 295 297 299
319 318 319 319 319 319 319 320 319 320 321 323 311 305 297 314 306 309 307 304 305 305 304 307 304 298 296 290 287 288 283 286 290 295 295 292 287 296 297 295 295 294 296 297 297
319 318 319 319 319 318 319 319 320 319 320 319 312 297 301 300 307 307 305 306 302 301 300 299 296 290 289 286 280 284 284 286 286 293 292 290 290 294 296 295 296 295 296 297 298
319 319 319 319 319 319 317 313 307 304 307 298 299 297 302 307 309 304 305 303 302 297 290 294 288 285 288 289 290 287 286 284 288 294 291 290 290 292 295 293 293 293 295 296 297
319 319 319 319 319 320 315 308 306 307 300 307 305 303 306 307 301 303 305 297 296 290 292 290 286 291 293 291 290 288 286 285 289 293 291 289 290 292 294 295 295 296 295 295 295
319 319 319 319 320 317 311 311 316 312 299 301 304 302 303 305 299 300 301 298 293 290 289 287 291 295 293 290 289 287 286 285 287 289 289 288 286 289 292 294 296 297 297 297 297
319 319 319 319 313 312 308 315 316 314 289 293 301 303 303 303 297 305 303 298 294 290 290 289 293 292 290 289 290 285 290 290 288 285 281 287 279 286 291 292 294 296 295 296 296
315 317 319 319 314 309 312 317 315 308 276 295 301 309 303 295 298 299 303 300 293 293 291 288 291 290 289 290 292 288 291 289 288 284 283 283 280 284 288 289 292 293 297 295 297
311 312 316 314 313 313 316 315 309 290 278 294 299 297 295 298 297 298 298 300 299 293 291 290 293 292 291 292 292 294 291 290 287 285 279 283 283 281 285 290 291 294 294 296 295
309 308 310 314 308 314 313 308 290 283 295 292 293 295 294 293 293 293 292 291 288 286 286 289 290 292 293 290 292 291 285 278 278 277 277 284 281 286 290 293 295 295 296 296 296
307 307 308 308 316 311 307 292 282 287 292 296 296 295 291 293 292 292 290 288 291 287 285 285 283 290 293 291 288 288 286 280 273 276 278 283 280 286 293 295 298 296 297 296 296
306 305 306 307 312 311 299 284 285 289 295 294 296 291 290 293 292 291 288 288 291 290 285 284 284 292 293 293 293 288 285 289 282 275 276 281 285 291 294 296 297 295 296 296 295
299 301 301 309 311 307 295 289 291 295 298 297 291 294 288 290 290 290 289 292 292 294 294 289 283 289 291 293 292 290 292 284 283 275 273 278 280 284 290 292 295 293 294 293 294
296 292 303 310 309 297 286 289 293 299 299 295 293 290 291 290 290 288 289 293 295 294 295 292 289 285 289 287 287 288 286 288 287 284 277 275 278 289 291 291 291 293 294 294 293
293 286 302 307 292 293 287 291 296 297 300 296 295 294 291 290 288 289 290 292 297 297 291 293 290 282 285 290 292 290 289 289 282 279 282 281 283 292 293 293 293 292 294 293 294
287 290 303 301 286 288 292 292 295 295 296 295 294 295 295 291 288 289 290 297 297 296 294 294 287 279 281 286 288 287 289 290 290 287 282 280 282 291 292 292 292 292 292 293 292
285 280 290 296 293 288 290 290 290 296 295 297 296 297 294 292 293 289 291 296 297 295 297 296 286 286 283 283 288 284 287 289 289 283 283 284 286 290 291 293 294 294 293 293 292
285 281 286 283 288 290 291 291 290 289 294 297 294 294 292 288 289 290 293 294 295 296 294 292 284 286 288 287 286 286 285 286 286 288 285 288 287 290 293 295 297 296 295 294 293
284 281 284 283 286 288 288 286 287 289 291 291 291 294 293 290 290 286 292 291 290 293 291 292 284 285 283 286 285 284 286 287 287 287 287 288 286 295 297 297 295 296 296 295 294
293 291 284 281 282 283 284 286 286 292 291 293 293 292 291 293 294 292 294 295 294 290 287 287 285 283 279 284 284 280 285 287 288 290 290 285 289 293 291 293 292 291 292 293 294

GFSSW_sfc_thetae_108.txt.gz
Theta_e
322 322 322 322 322 322 322 321 320 320 320 321 321 323 324 325 324 318 306 315 314 325 319 305 305 304 303 301 301 298 291 288 290 291 292 295 295 296 298 299 298 301 304 307 316
322 322 322 322 322 321 321 320 320 320 320 320 321 322 324 324 314 309 322 330 328 323 305 302 300 302 298 298 298 294 290 291 291 291 292 296 295 297 295 295 295 302 308 312 318
322 322 322 322 321 320 320 320 320 320 320 321 321 322 323 320 308 305 324 327 326 318 308 304 303 301 296 296 295 293 291 293 293 294 295 295 294 296 295 292 297 300 307 314 317
322 322 322 322 320 320 320 319 319 319 319 321 322 322 322 315 290 310 324 324 322 310 307 303 300 296 294 293 296 291 294 294 297 297 296 294 295 293 295 297 298 300 311 315 317
321 321 321 321 321 319 319 319 319 320 320 321 322 322 313 302 301 311 322 320 309 307 303 300 297 296 292 293 294 292 293 295 296 296 295 295 293 293 294 297 296 300 308 313 316
321 320 320 320 320 319 319 319 319 320 320 321 323 322 304 294 309 311 311 309 308 305 302 301 298 298 295 294 293 294 294 294 296 295 295 293 291 292 294 294 295 300 304 310 312
320 320 319 320 320 320 319 319 319 320 320 321 322 316 302 298 309 310 309 306 306 305 302 303 302 297 296 293 296 295 291 293 293 294 294 294 290 292 293 295 293 296 298 302 310
320 319 319 319 319 320 319 319 320 320 320 321 323 309 294 309 308 308 307 304 306 306 305 304 303 301 297 297 295 290 289 284 290 294 294 291 286 292 294 294 294 294 292 297 300
319 318 319 319 319 319 319 320 319 320 320 322 310 302 294 312 306 308 305 302 303 303 303 306 302 296 295 289 287 287 282 285 289 293 293 290 287 292 294 292 293 293 294 294 294
319 318 318 319 319 319 319 319 319 318 319 318 312 298 299 299 304 305 304 304 301 300 299 298 294 290 288 285 281 284 283 284 284 291 290 288 289 293 294 292 293 293 294 294 295
319 318 319 319 319 319 317 312 304 300 305 297 298 296 300 305 307 302 304 302 300 296 289 293 288 285 288 288 286 286 285 283 286 292 290 289 289 291 293 292 292 292 292 293 295
319 319 319 319 319 320 313 306 303 302 295 304 304 302 305 306 300 301 303 297 294 289 290 289 284 289 291 289 288 286 284 283 288 290 290 287 288 290 292 293 294 296 295 294 293
319 318 318 318 319 316 310 311 315 311 295 299 303 301 302 304 298 299 300 296 292 289 289 286 289 293 291 288 287 285 284 284 286 287 286 286 285 287 289 291 293 294 297 297 294
319 318 318 319 313 312 308 314 316 313 288 291 299 300 303 302 296 304 302 297 292 289 289 288 292 291 288 287 288 283 289 288 287 284 280 284 279 283 288 290 291 293 293 294 294
317 318 319 318 312 307 309 314 315 305 278 294 299 307 301 295 297 298 302 298 291 290 290 287 289 289 287 288 290 287 290 287 285 283 281 280 280 282 285 287 290 292 293 292 293
311 312 317 316 313 312 315 315 307 287 272 293 298 296 294 296 296 297 297 299 297 292 290 288 292 291 290 290 291 292 289 287 285 282 277 281 281 279 283 288 288 292 293 293 294
309 310 311 315 308 314 315 306 287 280 291 291 291 294 292 292 293 294 292 291 288 285 285 289 289 291 292 289 290 288 284 277 276 276 276 281 280 283 287 291 291 294 295 294 293
307 308 308 309 314 313 305 294 282 284 288 295 295 294 290 293 291 291 289 288 290 286 285 284 282 289 293 290 288 286 285 279 272 274 277 281 278 284 290 292 293 295 295 294 293
305 305 306 308 313 311 295 284 285 288 293 293 293 289 290 292 291 290 289 288 291 290 286 284 283 290 291 292 293 287 284 287 281 272 275 280 284 289 292 294 293 294 294 293 292
300 301 301 309 311 306 293 287 290 296 298 296 289 292 287 289 289 289 288 290 290 292 291 287 282 288 289 291 290 289 291 283 282 273 272 277 279 283 287 289 292 293 292 292 292
296 292 303 309 309 296 285 290 293 298 300 295 293 291 291 290 290 287 288 291 293 293 293 289 286 284 288 286 285 287 285 286 286 282 276 274 278 286 289 291 291 292 293 292 292
292 285 302 308 292 292 286 291 296 297 299 297 296 294 292 292 290 289 288 291 296 295 289 291 287 280 284 288 290 288 287 288 281 278 280 280 281 291 290 291 292 291 292 292 293
288 288 303 303 286 288 291 292 295 295 296 295 293 294 295 291 288 290 291 296 297 296 293 294 286 278 280 284 287 286 288 289 289 285 280 277 280 290 289 290 291 292 292 292 291
285 283 291 296 292 289 289 290 290 296 295 297 295 295 292 291 293 289 290 295 297 296 298 297 287 285 282 282 286 284 287 289 288 281 282 283 283 288 288 291 293 294 293 292 292
285 281 286 284 287 290 290 290 289 289 295 297 294 294 292 288 289 290 292 294 295 296 294 293 285 287 288 287 287 286 286 287 285 287 282 285 285 288 291 292 294 293 294 293 294
282 281 283 282 285 289 289 287 287 290 291 290 291 293 294 290 291 288 291 292 291 293 292 292 284 286 284 287 286 283 287 288 288 288 288 287 285 292 294 294 292 293 294 293 293
292 293 283 281 282 284 285 287 288 290 292 292 293 293 292 293 295 295 296 295 294 290 288 286 285 283 279 285 284 280 285 287 288 289 289 284 290 294 291 292 290 288 290 291 291

GFSSW_sfc_thetae_111.txt.gz
Theta_e
322 322 322 322 323 323 323 322 321 320 320 320 320 322 323 324 323 317 305 311 315 325 318 304 304 303 303 301 300 297 291 287 288 290 292 294 294 295 296 298 299 300 305 308 321
322 321 321 321 322 322 322 321 321 320 320 320 319 321 323 323 312 307 320 329 327 323 304 302 299 301 298 297 297 293 289 290 292 290 292 295 295 296 296 295 299 303 307 310 320
322 320 321 321 322 321 321 320 320 320 319 320 320 321 322 318 307 302 325 326 323 316 306 303 302 300 294 295 293 293 290 291 292 293 294 296 293 294 294 294 296 299 305 312 316
321 320 322 322 321 321 320 320 319 319 319 320 321 321 321 312 289 308 325 324 323 309 306 302 299 296 293 293 295 290 292 293 295 295 294 294 294 292 293 295 296 300 308 313 317
320 320 321 322 322 320 320 319 319 319 319 319 321 322 312 298 299 310 322 319 308 307 302 299 297 295 292 292 293 290 292 293 294 293 292 294 292 293 293 296 295 298 310 313 317
320 320 320 320 321 320 320 319 319 319 319 319 322 321 303 290 307 310 310 308 306 304 301 300 298 298 294 293 292 293 293 292 293 293 293 291 290 292 292 293 294 300 307 310 313
320 320 319 320 320 320 320 319 319 319 319 320 321 315 301 296 307 309 308 305 305 305 301 302 301 297 295 293 295 294 290 290 292 292 292 293 290 292 292 293 292 294 299 305 310
320 319 319 319 319 320 319 319 319 319 320 321 322 307 294 307 306 306 306 304 305 305 304 303 302 300 296 295 294 289 287 284 288 292 292 289 285 290 293 291 292 292 291 295 301
319 318 319 319 319 319 319 319 319 319 319 321 307 299 292 312 304 306 304 302 303 303 303 306 301 295 294 289 286 287 281 283 288 292 291 288 286 290 293 290 291 291 292 293 293
318 318 318 319 318 318 319 319 318 317 318 317 311 297 297 298 302 304 302 303 300 299 298 298 293 289 287 286 281 284 282 282 283 289 289 287 289 292 292 291 292 291 292 292 293
318 318 318 318 319 319 317 311 300 298 304 295 297 295 298 304 305 301 302 301 299 295 290 292 288 285 287 288 286 286 284 283 285 290 289 288 289 290 292 292 291 292 292 292 293
318 318 318 318 319 320 312 304 300 300 294 304 303 301 304 304 298 299 302 296 293 288 290 288 284 289 290 288 287 284 283 282 286 289 289 287 288 290 290 292 293 294 293 292 292
318 318 318 318 319 315 309 308 314 310 294 297 302 300 301 303 296 297 299 295 290 288 287 285 287 291 289 286 285 283 282 282 284 286 285 285 284 286 288 289 291 292 293 294 294
318 318 318 318 311 310 306 312 315 311 287 290 297 298 301 301 295 302 300 296 290 287 287 287 289 289 286 286 287 282 288 287 285 283 280 283 277 282 286 289 289 291 291 292 292
318 317 318 317 308 306 307 313 314 303 273 291 296 304 301 295 296 296 300 297 290 288 288 285 287 287 286 287 289 286 289 286 285 281 280 279 279 281 283 285 289 291 291 291 291
315 317 318 315 311 310 313 314 307 286 275 289 297 294 294 294 294 296 296 298 295 290 288 287 290 289 289 289 290 290 288 286 284 281 277 280 281 278 282 286 286 289 291 294 293
312 312 315 316 308 314 313 306 286 279 289 289 290 292 291 291 292 293 291 290 287 284 283 287 287 289 291 288 289 286 284 277 276 275 276 279 279 282 286 288 287 290 291 293 293
309 309 309 312 315 315 308 293 279 282 286 294 293 291 287 291 291 291 289 287 290 285 284 283 281 289 291 289 286 284 285 278 272 273 276 280 278 283 288 290 292 292 292 294 292
307 306 306 308 312 312 300 284 282 286 292 292 292 287 288 290 289 290 288 288 290 288 284 282 283 289 291 291 292 286 283 287 280 271 275 279 282 287 291 291 292 293 293 292 293
302 301 302 309 312 304 291 286 290 294 296 294 288 290 284 287 286 288 287 290 290 291 290 287 281 286 288 291 290 288 290 282 280 271 271 276 278 282 285 288 291 291 291 291 292
298 295 304 309 309 296 285 287 292 298 299 295 292 290 289 289 288 286 287 289 292 291 293 290 285 283 287 285 285 286 285 285 284 280 275 272 278 284 285 290 290 290 292 291 292
293 287 303 308 293 287 286 292 296 295 299 296 296 294 292 291 289 288 287 289 294 293 289 290 287 280 283 287 289 288 286 286 281 277 279 278 281 289 290 290 291 290 291 292 292
289 290 303 302 285 286 290 292 295 295 296 295 293 294 295 292 289 291 291 295 295 294 291 292 285 276 279 283 286 286 286 287 287 283 279 276 280 289 289 289 290 290 292 292 290
285 284 291 297 293 290 289 291 291 297 296 297 295 295 293 291 293 290 291 294 296 295 298 296 287 284 281 281 286 284 285 287 287 279 282 281 282 287 289 289 291 292 292 292 290
285 281 285 285 288 289 292 291 290 289 295 297 293 293 292 288 290 289 292 293 295 296 296 294 285 287 288 287 287 284 283 287 286 287 282 285 285 287 290 290 291 291 293 291 291
283 281 283 282 288 289 289 286 289 290 291 289 291 294 293 289 290 287 291 292 291 293 292 292 285 287 285 288 287 284 286 286 286 286 287 285 285 292 293 292 289 292 292 292 291
292 291 284 281 282 286 286 287 287 292 293 292 291 292 291 294 294 293 293 294 293 291 288 287 285 284 282 285 284 281 286 288 288 288 288 284 289 291 290 292 289 288 289 289 290